[{"header": {"parameterCategory": 1, "parameterNumber": 2, "dx": 0.06612293990616946, "dy": 0.0552356325346848, "nx": 98, "ny": 59, "la1": 35.046912555036876, "la2": 31.78801023549047, "lo1": -121.43107172385933, "lo2": -114.95102361305473, "refTime": "2026041108"}, "data": [7.6, 7.6, 7.6, 7.15, 7.15, 7.15, 6.71, 6.71, 6.71, 6.71, 6.71, 6.71, 6.71, 6.26, 6.26, 6.26, 6.26, 6.26, 6.26, 6.26, 6.26, 6.26, 6.26, 6.26, 6.71, 6.71, 6.71, 6.71, 6.71, 6.71, 7.15, 7.15, 7.15, 7.15, 7.6, 7.6, 8.05, 8.05, 8.05, 8.05, 8.05, 7.6, 7.15, 7.15, 7.15, 7.15, 7.15, 7.15, 7.15, 7.15, 7.15, 7.6, 7.6, 7.6, 7.6, 7.6, 7.6, 7.6, 7.6, 7.6, 7.6, 7.6, 7.15, 6.26, 4.92, 3.58, 2.24, 1.34, 0.45, 0.89, 2.24, 3.13, 4.02, 4.02, 3.58, 3.58, 3.58, 4.02, 4.02, 4.92, 5.36, 5.81, 6.71, 6.71, 7.15, 7.15, 6.71, 6.71, 6.71, 7.15, 7.15, 6.71, 6.26, 6.26, 6.26, 6.26, 6.26, 6.26, 8.05, 8.05, 8.05, 7.6, 7.6, 7.15, 7.15, 7.15, 7.15, 7.15, 7.15, 7.15, 7.15, 6.71, 6.71, 6.71, 6.71, 6.71, 6.71, 6.71, 6.71, 6.71, 6.71, 6.71, 6.71, 7.15, 7.15, 7.15, 7.15, 7.15, 7.15, 7.15, 7.6, 7.6, 8.05, 8.05, 8.05, 8.49, 8.49, 8.49, 8.05, 8.05, 7.6, 7.6, 7.6, 7.6, 7.6, 7.6, 7.6, 7.6, 7.6, 7.6, 7.6, 7.6, 7.6, 7.6, 7.6, 7.6, 7.6, 7.6, 8.05, 8.05, 7.6, 6.71, 5.36, 4.47, 3.13, 1.79, 0.89, 0.89, 1.79, 3.13, 4.02, 4.02, 4.02, 3.58, 3.58, 4.02, 4.02, 4.92, 5.36, 5.81, 6.71, 6.71, 7.15, 7.15, 6.71, 6.71, 6.71, 7.15, 7.15, 6.71, 6.26, 6.26, 6.26, 6.26, 6.26, 6.26, 8.05, 8.49, 8.49, 8.05, 8.05, 7.6, 7.6, 7.6, 7.6, 7.6, 7.6, 7.15, 7.15, 7.15, 7.15, 7.15, 7.15, 7.15, 7.15, 7.15, 7.15, 7.15, 7.15, 6.71, 6.71, 7.15, 7.15, 7.15, 7.15, 7.15, 7.15, 7.15, 7.6, 7.6, 8.05, 8.05, 8.49, 8.49, 8.94, 8.49, 8.49, 8.05, 7.6, 7.6, 7.6, 7.6, 7.6, 7.6, 7.6, 7.6, 7.6, 7.6, 7.6, 7.6, 7.6, 7.6, 7.6, 7.6, 8.05, 8.05, 8.05, 8.49, 8.05, 7.15, 6.26, 4.92, 3.58, 1.79, 0.89, 0.45, 1.34, 3.13, 4.02, 4.47, 4.47, 4.02, 3.58, 3.58, 4.02, 4.47, 4.92, 5.81, 6.26, 6.71, 7.15, 7.15, 6.71, 6.71, 7.15, 7.15, 7.15, 7.15, 6.71, 6.71, 6.71, 6.71, 6.71, 6.71, 8.49, 8.49, 8.49, 8.49, 8.49, 8.05, 8.05, 8.05, 8.05, 8.05, 7.6, 7.6, 7.6, 7.6, 7.6, 7.6, 7.6, 7.6, 7.6, 7.6, 7.6, 7.6, 7.6, 7.15, 7.15, 7.15, 7.15, 7.6, 7.6, 7.6, 7.6, 7.6, 8.05, 8.05, 8.05, 8.05, 8.49, 8.94, 8.94, 8.94, 8.49, 8.49, 8.05, 8.05, 7.6, 7.6, 7.6, 7.6, 7.6, 7.6, 7.6, 7.6, 7.6, 7.6, 8.05, 8.05, 8.05, 8.05, 8.05, 8.49, 8.49, 8.49, 8.49, 7.6, 6.71, 5.81, 4.02, 2.24, 0.89, 0.45, 1.34, 2.68, 4.02, 4.92, 4.92, 4.47, 3.58, 3.13, 4.02, 4.47, 4.92, 5.81, 6.26, 6.71, 6.71, 7.15, 7.15, 7.15, 7.15, 7.15, 7.15, 7.15, 7.15, 6.71, 6.71, 6.71, 6.71, 6.71, 8.94, 8.94, 8.94, 8.94, 8.49, 8.49, 8.49, 8.05, 8.05, 8.05, 8.05, 8.05, 8.05, 8.05, 8.05, 8.05, 8.05, 8.05, 8.05, 8.05, 8.05, 8.05, 8.05, 8.05, 7.6, 7.6, 7.6, 7.6, 8.05, 8.05, 8.05, 8.49, 8.49, 8.49, 8.05, 8.49, 8.49, 8.94, 9.39, 9.39, 8.94, 8.94, 8.49, 8.05, 8.05, 7.6, 7.6, 7.6, 7.6, 7.6, 7.6, 7.6, 7.6, 8.05, 8.05, 8.49, 8.49, 8.49, 8.49, 8.94, 8.94, 8.94, 8.49, 8.05, 7.15, 6.26, 4.92, 3.58, 1.79, 0.45, 0.89, 2.24, 3.58, 4.92, 5.36, 4.92, 4.02, 3.58, 3.58, 4.47, 4.92, 5.36, 6.26, 6.71, 7.15, 7.15, 7.15, 7.15, 7.15, 7.15, 7.6, 7.6, 7.15, 7.15, 7.15, 7.15, 7.15, 6.71, 9.39, 9.39, 9.39, 8.94, 8.94, 8.94, 8.49, 8.49, 8.49, 8.49, 8.49, 8.49, 8.49, 8.49, 8.49, 8.49, 8.49, 8.49, 8.49, 8.49, 8.49, 8.49, 8.49, 8.05, 8.05, 8.05, 8.05, 8.05, 8.49, 8.49, 8.49, 8.49, 8.49, 8.49, 8.49, 8.49, 8.49, 8.94, 9.39, 9.83, 9.83, 8.94, 8.49, 8.05, 8.05, 7.6, 7.6, 7.6, 7.6, 7.6, 7.6, 7.6, 8.05, 8.49, 8.49, 8.49, 8.94, 8.94, 8.94, 8.94, 9.39, 9.39, 8.94, 8.49, 8.05, 7.15, 6.26, 4.92, 3.13, 1.34, 1.34, 2.24, 3.58, 4.47, 4.92, 4.92, 4.47, 4.02, 4.02, 4.47, 4.92, 5.81, 6.26, 6.71, 7.15, 7.15, 7.15, 7.15, 7.15, 7.15, 7.6, 7.6, 7.15, 7.15, 7.15, 7.15, 7.15, 7.15, 9.83, 9.83, 9.83, 9.39, 9.39, 8.94, 8.94, 8.94, 8.94, 8.94, 8.94, 8.94, 8.94, 8.94, 8.94, 8.94, 8.94, 8.94, 8.94, 8.94, 8.94, 8.94, 8.94, 8.49, 8.49, 8.49, 8.49, 8.49, 8.49, 8.49, 8.49, 8.94, 8.94, 8.94, 8.94, 8.94, 8.94, 8.94, 9.39, 10.28, 10.28, 9.83, 8.94, 8.49, 8.05, 7.6, 7.6, 7.6, 8.05, 8.05, 8.05, 8.05, 8.49, 8.94, 8.94, 8.94, 8.94, 8.94, 8.94, 8.94, 9.39, 9.39, 9.39, 8.94, 8.49, 7.6, 7.15, 5.81, 4.47, 2.68, 2.24, 2.68, 3.13, 4.02, 4.47, 4.47, 4.47, 4.47, 4.02, 4.47, 4.92, 5.81, 6.26, 6.71, 7.15, 7.15, 7.15, 7.15, 7.15, 7.15, 7.6, 7.6, 7.6, 7.6, 7.6, 7.6, 7.6, 7.6, 10.28, 10.28, 9.83, 9.83, 9.39, 9.39, 9.39, 9.39, 9.39, 9.39, 9.39, 9.39, 9.39, 9.39, 9.39, 8.94, 8.94, 8.94, 8.94, 8.94, 8.94, 9.39, 9.39, 8.94, 8.94, 8.94, 8.94, 8.94, 8.94, 8.94, 8.94, 8.94, 8.94, 8.94, 8.94, 8.94, 9.39, 9.39, 9.83, 10.28, 10.73, 10.28, 9.39, 8.49, 8.05, 8.05, 7.6, 8.05, 8.05, 8.49, 8.94, 8.94, 8.94, 8.94, 8.94, 8.94, 8.94, 8.94, 8.94, 9.39, 9.83, 9.83, 9.83, 9.83, 9.39, 8.49, 7.6, 6.71, 5.36, 3.58, 2.68, 2.68, 3.13, 4.02, 4.02, 4.02, 4.02, 4.47, 4.47, 4.47, 4.92, 5.81, 6.26, 6.71, 7.15, 7.6, 7.6, 7.15, 7.15, 7.15, 7.6, 7.6, 8.05, 8.05, 7.6, 7.6, 7.6, 7.6, 10.73, 10.28, 10.28, 10.28, 9.83, 9.83, 9.83, 9.83, 9.83, 9.83, 9.83, 9.83, 9.83, 9.39, 9.39, 9.39, 9.39, 9.39, 9.39, 9.39, 9.39, 9.39, 9.39, 9.39, 9.39, 9.39, 9.39, 9.39, 9.39, 9.39, 9.39, 9.39, 9.39, 9.39, 9.39, 9.39, 9.39, 9.83, 9.83, 10.28, 10.73, 10.73, 9.83, 8.94, 8.49, 8.49, 8.49, 8.49, 8.49, 8.94, 8.94, 8.94, 8.94, 8.94, 8.94, 8.94, 8.94, 8.94, 8.94, 9.39, 10.28, 10.28, 10.73, 10.28, 9.83, 8.94, 8.49, 7.15, 5.81, 4.47, 3.13, 2.68, 3.13, 3.58, 3.58, 3.58, 4.02, 4.02, 4.47, 4.47, 4.92, 5.81, 6.26, 6.71, 7.15, 7.6, 7.6, 7.15, 7.15, 7.15, 7.6, 8.05, 8.05, 8.05, 8.05, 8.05, 8.05, 7.6, 10.73, 10.73, 10.73, 10.28, 10.28, 10.28, 10.28, 10.28, 10.28, 10.28, 10.28, 10.28, 10.28, 9.83, 9.83, 9.83, 9.83, 9.83, 9.83, 9.83, 9.83, 9.83, 9.83, 9.83, 9.39, 9.39, 9.39, 9.39, 9.39, 9.39, 9.39, 9.39, 9.39, 9.39, 9.39, 9.39, 9.39, 9.83, 9.83, 10.28, 10.73, 10.73, 9.83, 9.39, 8.49, 8.49, 8.94, 8.94, 9.39, 9.39, 9.39, 9.39, 8.94, 8.94, 9.39, 9.39, 9.39, 9.39, 9.39, 10.28, 10.73, 10.73, 10.73, 10.73, 10.28, 9.39, 8.94, 8.05, 6.71, 4.92, 3.13, 2.68, 2.68, 3.13, 3.58, 3.58, 4.02, 4.02, 4.47, 4.92, 4.92, 5.36, 6.26, 6.71, 7.15, 7.6, 7.6, 7.6, 7.15, 7.6, 7.6, 8.05, 8.05, 8.05, 8.05, 8.05, 8.05, 7.6, 11.18, 11.18, 10.73, 10.73, 10.73, 10.73, 10.28, 10.28, 10.28, 10.28, 10.73, 10.73, 10.28, 10.28, 10.28, 10.28, 10.28, 9.83, 9.83, 9.83, 9.83, 9.83, 9.83, 9.83, 9.83, 9.83, 9.83, 9.83, 9.83, 9.83, 9.83, 9.83, 9.83, 9.83, 9.83, 9.83, 9.39, 9.83, 9.83, 9.83, 9.39, 8.49, 9.39, 9.83, 9.83, 9.39, 9.39, 9.83, 9.83, 9.83, 9.83, 9.83, 9.39, 9.39, 9.39, 9.83, 9.83, 9.83, 10.28, 10.73, 11.18, 11.18, 11.18, 10.73, 10.28, 9.83, 8.94, 8.05, 6.71, 4.92, 3.13, 2.24, 2.68, 3.13, 3.58, 3.58, 4.02, 4.47, 4.92, 4.92, 4.92, 5.36, 6.26, 6.71, 7.15, 7.15, 7.6, 7.6, 7.15, 7.6, 7.6, 8.05, 8.49, 8.49, 8.05, 8.05, 8.05, 8.05, 11.18, 11.18, 11.18, 11.18, 11.18, 11.18, 10.73, 10.73, 10.73, 10.73, 10.73, 10.73, 10.73, 10.73, 10.73, 10.73, 10.28, 10.28, 10.28, 10.28, 10.28, 10.28, 10.28, 10.28, 10.28, 10.28, 10.28, 9.83, 9.83, 9.83, 9.83, 9.83, 9.83, 9.83, 9.83, 9.83, 9.83, 9.83, 9.83, 9.83, 8.05, 5.36, 8.05, 11.18, 11.18, 10.73, 10.28, 10.28, 10.28, 10.73, 10.73, 10.73, 10.73, 10.28, 10.28, 10.28, 10.28, 10.28, 10.73, 11.18, 11.18, 11.18, 11.18, 11.18, 10.73, 9.83, 8.94, 8.05, 6.71, 4.92, 3.13, 2.68, 3.13, 3.58, 4.02, 4.02, 4.47, 4.92, 4.92, 5.36, 5.36, 5.81, 6.26, 6.71, 6.71, 7.15, 7.15, 7.15, 7.15, 7.6, 7.6, 8.05, 8.49, 8.49, 8.49, 8.05, 8.05, 8.05, 11.62, 11.62, 11.62, 11.62, 11.62, 11.18, 11.18, 11.18, 11.18, 11.18, 11.18, 11.18, 11.18, 11.18, 11.18, 10.73, 10.73, 10.73, 10.73, 10.73, 10.28, 10.28, 10.28, 10.28, 10.28, 10.28, 10.28, 10.28, 10.28, 10.28, 10.28, 10.28, 10.28, 10.28, 10.28, 9.83, 9.83, 9.83, 9.83, 9.83, 8.05, 6.71, 9.39, 12.07, 12.07, 11.18, 11.18, 10.73, 10.73, 11.18, 11.18, 11.18, 11.18, 11.62, 11.62, 11.62, 11.18, 10.73, 10.73, 11.62, 11.62, 11.62, 11.18, 11.18, 10.73, 10.28, 9.83, 8.49, 7.15, 5.36, 3.13, 2.68, 4.02, 4.92, 4.92, 4.47, 4.92, 5.36, 5.36, 5.36, 5.36, 5.81, 6.26, 6.71, 6.71, 6.71, 7.15, 7.15, 7.15, 7.15, 7.6, 8.05, 8.49, 8.49, 8.49, 8.49, 8.49, 8.05, 12.07, 12.07, 11.62, 11.62, 11.62, 11.62, 11.62, 11.62, 11.62, 11.62, 11.62, 11.62, 11.62, 11.62, 11.18, 11.18, 11.18, 11.18, 11.18, 10.73, 10.73, 10.73, 10.73, 10.73, 10.73, 10.73, 10.73, 10.73, 10.28, 10.28, 10.28, 10.28, 10.28, 10.28, 10.28, 10.28, 10.28, 9.83, 9.83, 10.28, 10.28, 10.73, 11.62, 11.62, 11.62, 11.62, 11.18, 11.18, 11.18, 11.18, 11.18, 11.62, 11.62, 12.07, 12.07, 12.52, 12.52, 11.62, 10.73, 11.18, 12.07, 12.07, 11.62, 11.62, 11.18, 11.18, 10.28, 9.39, 8.49, 6.71, 4.92, 4.02, 4.02, 4.92, 5.36, 4.92, 4.92, 5.36, 5.81, 5.81, 5.36, 5.81, 6.26, 6.71, 6.71, 6.71, 6.71, 6.71, 6.71, 6.71, 7.15, 8.05, 8.49, 8.49, 8.49, 8.49, 8.49, 8.49, 12.07, 12.07, 12.07, 12.07, 12.07, 12.07, 12.07, 12.07, 12.07, 12.07, 12.07, 12.07, 12.07, 12.07, 11.62, 11.62, 11.62, 11.62, 11.18, 11.18, 11.18, 11.18, 11.18, 11.18, 11.18, 10.73, 10.73, 10.73, 10.73, 10.73, 10.73, 10.73, 10.73, 10.28, 10.28, 10.28, 10.28, 10.28, 10.28, 10.28, 10.73, 11.18, 11.62, 12.07, 12.07, 12.07, 11.62, 11.62, 11.62, 11.62, 11.62, 11.62, 12.07, 12.52, 12.96, 12.96, 12.96, 12.52, 12.07, 11.62, 12.07, 12.07, 12.07, 11.62, 11.62, 11.18, 11.18, 10.28, 9.39, 8.49, 7.15, 5.36, 4.92, 5.36, 5.81, 5.36, 5.36, 5.81, 5.81, 5.81, 5.36, 5.81, 6.26, 6.71, 6.71, 6.71, 6.71, 6.71, 6.26, 6.26, 6.71, 7.6, 8.49, 8.49, 8.49, 8.94, 8.49, 8.49, 12.52, 12.52, 12.52, 12.52, 12.52, 12.52, 12.52, 12.52, 12.52, 12.52, 12.52, 12.07, 12.07, 12.07, 12.07, 12.07, 12.07, 11.62, 11.62, 11.62, 11.18, 11.18, 11.18, 11.18, 11.18, 11.18, 11.18, 11.18, 11.18, 11.18, 10.73, 10.73, 10.73, 10.73, 10.73, 10.73, 10.73, 10.73, 10.73, 10.73, 11.18, 11.62, 12.07, 12.07, 12.07, 12.07, 12.07, 12.07, 12.07, 12.07, 12.07, 12.07, 12.52, 12.52, 12.96, 12.96, 12.96, 12.96, 12.52, 12.07, 12.07, 12.07, 12.07, 12.07, 12.07, 11.62, 11.62, 11.18, 10.73, 9.39, 7.6, 5.81, 5.36, 5.81, 5.81, 5.81, 5.36, 5.81, 6.26, 5.81, 5.36, 5.81, 5.81, 6.26, 6.71, 7.15, 6.71, 6.71, 6.26, 6.26, 6.26, 8.05, 8.49, 8.94, 8.94, 8.94, 8.94, 8.94, 12.96, 12.96, 12.96, 12.96, 12.96, 12.96, 12.96, 12.96, 12.52, 12.52, 12.52, 12.52, 12.52, 12.52, 12.52, 12.52, 12.07, 12.07, 12.07, 12.07, 11.62, 11.62, 11.62, 11.62, 11.62, 11.62, 11.62, 11.18, 11.18, 11.18, 11.18, 11.18, 11.18, 10.73, 10.73, 10.73, 10.73, 11.18, 11.18, 11.18, 11.18, 11.62, 12.07, 12.52, 12.52, 12.52, 12.52, 12.52, 12.52, 12.96, 12.96, 12.96, 13.41, 13.41, 13.41, 12.96, 12.96, 12.96, 12.96, 12.96, 12.52, 12.52, 12.52, 12.07, 12.07, 12.07, 12.07, 12.07, 11.62, 10.73, 8.49, 6.71, 5.81, 5.81, 6.26, 6.26, 6.26, 6.26, 6.26, 6.26, 5.81, 5.81, 6.26, 6.26, 6.71, 7.15, 7.15, 6.71, 6.26, 6.26, 6.71, 7.6, 8.94, 8.94, 8.94, 8.94, 8.94, 8.94, 13.41, 13.41, 13.41, 13.41, 13.41, 13.41, 13.41, 12.96, 12.96, 12.96, 12.96, 12.96, 12.96, 12.96, 12.96, 12.52, 12.52, 12.52, 12.52, 12.52, 12.07, 12.07, 12.07, 12.07, 12.07, 12.07, 11.62, 11.62, 11.62, 11.62, 11.62, 11.18, 11.18, 11.18, 11.18, 11.18, 11.18, 11.18, 11.18, 11.62, 11.62, 12.07, 12.07, 12.52, 12.52, 12.96, 12.96, 12.96, 12.96, 12.96, 13.41, 13.41, 13.41, 13.41, 13.41, 13.41, 13.41, 13.41, 13.41, 12.96, 12.96, 12.52, 12.52, 12.52, 12.07, 12.07, 12.07, 12.07, 12.07, 11.62, 9.83, 7.15, 6.26, 6.26, 6.71, 6.71, 7.15, 7.15, 7.15, 6.71, 6.26, 6.26, 6.71, 6.71, 7.15, 7.15, 7.15, 7.15, 6.71, 6.71, 6.71, 7.6, 8.94, 9.39, 9.39, 9.39, 9.39, 9.39, 13.86, 13.86, 13.86, 13.86, 13.86, 13.86, 13.86, 13.41, 13.41, 13.41, 13.41, 13.41, 13.41, 13.41, 12.96, 12.96, 12.96, 12.96, 12.96, 12.52, 12.52, 12.52, 12.07, 12.07, 12.07, 12.07, 12.07, 12.07, 12.07, 12.07, 11.62, 11.62, 11.62, 11.62, 11.62, 11.62, 11.62, 11.62, 11.62, 11.62, 11.62, 12.07, 12.52, 12.52, 12.96, 12.96, 12.96, 13.41, 13.41, 13.41, 13.41, 13.86, 13.41, 13.41, 13.41, 13.41, 13.41, 13.41, 13.41, 12.96, 12.96, 12.96, 12.52, 12.52, 12.52, 12.52, 12.52, 12.52, 12.52, 12.07, 10.73, 8.05, 6.26, 6.26, 6.71, 7.15, 7.6, 7.6, 7.6, 7.15, 6.71, 6.71, 7.15, 7.15, 7.15, 7.15, 7.15, 7.15, 7.15, 7.15, 6.71, 7.15, 8.49, 9.39, 9.39, 9.39, 9.39, 9.39, 14.3, 14.3, 14.3, 13.86, 13.86, 13.86, 13.86, 13.86, 13.86, 13.86, 13.86, 13.86, 13.41, 13.41, 13.41, 13.41, 13.41, 12.96, 12.96, 12.96, 12.96, 12.96, 12.52, 12.52, 12.52, 12.52, 12.52, 12.52, 12.52, 12.07, 12.07, 12.07, 12.07, 11.62, 11.62, 11.62, 11.62, 12.07, 12.07, 12.07, 12.07, 12.07, 12.52, 12.96, 12.96, 12.96, 13.41, 13.41, 13.41, 13.86, 13.86, 13.86, 13.86, 13.41, 13.41, 13.41, 13.41, 13.41, 13.41, 13.41, 13.41, 12.96, 12.96, 12.96, 12.52, 12.52, 12.52, 12.52, 12.52, 12.07, 11.18, 8.94, 6.26, 5.81, 6.71, 7.15, 7.6, 7.6, 7.6, 7.15, 6.71, 6.71, 7.15, 7.15, 7.15, 7.15, 7.15, 7.15, 7.15, 7.15, 7.15, 7.6, 8.49, 9.39, 9.39, 9.39, 9.39, 9.39, 14.75, 14.75, 14.75, 14.3, 14.3, 14.3, 14.3, 14.3, 14.3, 14.3, 14.3, 13.86, 13.86, 13.86, 13.86, 13.86, 13.41, 13.41, 13.41, 13.41, 13.41, 13.41, 12.96, 12.96, 12.96, 12.96, 12.96, 12.96, 12.96, 12.52, 12.52, 12.52, 12.07, 12.07, 12.07, 12.07, 12.07, 12.07, 12.07, 12.07, 12.52, 12.52, 12.96, 12.96, 12.96, 13.41, 13.41, 13.41, 13.86, 13.86, 13.86, 13.86, 13.86, 13.86, 13.41, 13.41, 13.41, 13.41, 13.41, 13.41, 13.41, 13.41, 13.41, 12.96, 12.96, 12.96, 12.96, 12.52, 12.52, 12.07, 11.18, 8.94, 5.81, 5.81, 6.71, 7.15, 7.6, 7.6, 7.6, 7.6, 7.15, 6.71, 6.71, 7.15, 7.15, 7.6, 7.6, 7.15, 7.15, 7.15, 7.6, 7.6, 8.49, 9.39, 9.83, 9.39, 9.39, 9.39, 15.2, 15.2, 15.2, 14.75, 14.75, 14.75, 14.75, 14.75, 14.75, 14.75, 14.3, 14.3, 14.3, 14.3, 14.3, 14.3, 13.86, 13.86, 13.86, 13.86, 13.86, 13.41, 13.41, 13.41, 13.41, 13.41, 13.41, 13.41, 12.96, 12.96, 12.96, 12.96, 12.52, 12.52, 12.52, 12.52, 12.52, 12.52, 12.52, 12.52, 12.52, 12.96, 12.96, 12.96, 13.41, 13.41, 13.41, 13.86, 13.86, 13.86, 14.3, 13.86, 13.86, 13.86, 13.86, 13.86, 13.86, 13.41, 13.41, 13.41, 13.41, 13.41, 13.41, 13.41, 12.96, 12.96, 12.96, 12.96, 12.96, 12.52, 11.62, 8.94, 5.36, 4.92, 7.15, 7.15, 7.15, 7.15, 7.15, 7.6, 7.15, 7.15, 6.71, 6.71, 7.15, 7.6, 7.6, 7.6, 7.15, 7.15, 7.6, 8.05, 8.49, 9.39, 9.83, 9.83, 9.83, 9.83, 15.65, 15.65, 15.65, 15.65, 15.2, 15.2, 15.2, 15.2, 15.2, 15.2, 15.2, 14.75, 14.75, 14.75, 14.75, 14.75, 14.3, 14.3, 14.3, 14.3, 13.86, 13.86, 13.86, 13.86, 13.86, 13.86, 13.41, 13.41, 13.41, 13.41, 13.41, 13.41, 12.96, 12.96, 12.96, 12.96, 12.52, 12.52, 12.96, 12.96, 12.96, 12.96, 13.41, 13.41, 13.41, 13.41, 13.86, 13.86, 14.3, 14.3, 14.3, 14.3, 14.3, 14.3, 13.86, 13.86, 13.86, 13.86, 13.41, 13.41, 13.86, 13.41, 13.41, 13.41, 13.41, 13.41, 13.41, 12.96, 12.96, 12.96, 12.07, 10.73, 4.02, 6.71, 7.15, 6.71, 7.15, 7.15, 7.15, 7.15, 7.6, 7.15, 7.15, 6.71, 7.15, 7.15, 7.6, 7.6, 7.15, 7.15, 7.15, 7.6, 8.49, 9.39, 9.83, 9.83, 9.83, 9.83, 16.09, 16.09, 16.09, 16.09, 15.65, 15.65, 15.65, 15.65, 15.65, 15.65, 15.65, 15.2, 15.2, 15.2, 15.2, 15.2, 14.75, 14.75, 14.75, 14.75, 14.75, 14.3, 14.3, 14.3, 14.3, 14.3, 13.86, 13.86, 13.86, 13.86, 13.86, 13.86, 13.41, 13.41, 13.41, 12.96, 12.96, 12.96, 12.96, 12.96, 13.41, 13.41, 13.41, 13.41, 13.41, 13.86, 13.86, 14.3, 14.3, 14.3, 14.3, 14.3, 14.3, 14.3, 14.3, 14.3, 14.3, 13.86, 13.86, 13.41, 13.86, 13.86, 13.86, 13.41, 13.41, 13.41, 13.41, 13.41, 13.41, 12.96, 12.96, 9.39, 5.81, 5.36, 6.26, 6.71, 7.15, 7.15, 7.15, 7.15, 7.6, 7.6, 7.15, 6.71, 7.15, 7.15, 7.6, 7.6, 7.6, 7.15, 7.15, 7.6, 8.49, 9.39, 9.83, 9.83, 9.83, 9.83, 16.99, 16.99, 16.54, 16.54, 16.54, 16.54, 16.09, 16.09, 16.09, 16.09, 16.09, 15.65, 15.65, 15.65, 15.65, 15.65, 15.65, 15.2, 15.2, 15.2, 15.2, 15.2, 14.75, 14.75, 14.75, 14.75, 14.3, 14.3, 14.3, 14.3, 14.3, 14.3, 13.86, 13.86, 13.86, 13.41, 13.41, 13.41, 13.41, 13.41, 13.41, 13.41, 13.86, 13.86, 13.86, 13.86, 14.3, 14.3, 14.3, 14.3, 14.3, 14.3, 14.3, 14.75, 14.3, 14.3, 14.75, 14.3, 14.3, 13.86, 13.86, 13.86, 13.86, 13.86, 13.41, 13.41, 13.41, 13.41, 13.41, 12.96, 12.52, 11.18, 8.05, 5.81, 5.36, 5.81, 7.15, 7.6, 7.15, 7.15, 7.6, 7.6, 7.15, 7.15, 7.15, 7.15, 7.6, 8.05, 8.05, 7.6, 7.15, 7.15, 8.05, 8.94, 9.83, 9.83, 9.83, 9.83, 17.43, 17.43, 16.99, 16.99, 16.99, 16.99, 16.99, 16.99, 16.54, 16.54, 16.54, 16.54, 16.54, 16.09, 16.09, 16.09, 16.09, 16.09, 16.09, 15.65, 15.65, 15.65, 15.65, 15.65, 15.2, 15.2, 15.2, 14.75, 14.75, 14.75, 14.75, 14.75, 14.3, 14.3, 14.3, 13.86, 13.86, 13.86, 13.41, 13.41, 13.86, 13.86, 13.86, 13.86, 13.86, 14.3, 14.3, 14.3, 14.75, 14.75, 14.75, 14.75, 14.75, 14.75, 14.75, 14.75, 14.75, 14.75, 14.75, 14.3, 14.3, 13.86, 13.86, 13.86, 13.86, 13.86, 13.86, 13.41, 13.41, 13.41, 12.96, 12.52, 10.28, 7.6, 5.81, 5.36, 6.71, 8.05, 8.05, 7.6, 7.6, 7.6, 7.6, 7.6, 7.15, 7.6, 7.6, 8.05, 8.05, 8.05, 8.05, 7.15, 7.6, 8.49, 9.39, 9.83, 9.83, 9.83, 17.88, 17.88, 17.88, 17.88, 17.43, 17.43, 17.43, 17.43, 17.43, 17.43, 16.99, 16.99, 16.99, 16.99, 16.99, 16.54, 16.54, 16.54, 16.54, 16.54, 16.54, 16.09, 16.09, 16.09, 16.09, 15.65, 15.65, 15.65, 15.2, 15.2, 15.2, 15.2, 15.2, 15.2, 14.75, 14.75, 14.75, 14.3, 14.3, 14.3, 14.3, 14.3, 14.3, 14.3, 14.3, 14.3, 14.75, 14.75, 14.75, 14.75, 14.75, 14.75, 14.75, 14.75, 14.75, 14.75, 14.75, 14.75, 14.75, 14.75, 14.75, 14.3, 14.3, 13.86, 13.86, 13.86, 13.86, 13.86, 13.41, 13.41, 13.41, 12.96, 11.62, 9.83, 8.05, 6.71, 6.71, 8.49, 8.94, 8.49, 8.49, 8.05, 8.05, 7.6, 7.6, 7.6, 7.6, 8.05, 8.05, 8.49, 8.49, 8.05, 7.6, 8.49, 9.39, 9.39, 9.83, 9.83, 18.78, 18.78, 18.33, 18.33, 18.33, 18.33, 17.88, 17.88, 17.88, 17.88, 17.88, 17.88, 17.88, 17.43, 17.43, 17.43, 17.43, 17.43, 16.99, 16.99, 16.99, 16.99, 16.99, 16.54, 16.54, 16.54, 16.09, 16.54, 16.54, 16.09, 16.09, 15.65, 15.65, 15.65, 15.2, 15.2, 15.2, 14.75, 14.75, 14.3, 14.3, 14.75, 14.75, 14.75, 14.75, 14.75, 15.2, 15.2, 15.2, 14.75, 14.75, 14.75, 15.2, 15.2, 15.2, 14.75, 14.75, 14.75, 15.2, 15.2, 14.75, 14.75, 14.3, 14.3, 14.3, 14.3, 13.86, 13.86, 13.86, 13.86, 13.41, 12.96, 12.07, 10.73, 9.39, 8.49, 8.05, 8.05, 8.94, 9.39, 9.39, 8.94, 8.49, 8.05, 8.05, 8.05, 8.05, 8.05, 8.05, 8.49, 8.94, 8.94, 8.05, 8.49, 8.94, 9.39, 9.39, 9.39, 19.22, 19.22, 19.22, 19.22, 18.78, 18.78, 18.78, 18.78, 18.78, 18.78, 18.78, 18.33, 18.33, 18.33, 18.33, 18.33, 17.88, 17.88, 17.88, 17.88, 17.88, 17.43, 17.43, 17.43, 16.99, 17.43, 17.43, 16.99, 16.99, 16.54, 16.54, 16.54, 16.09, 16.09, 15.65, 15.65, 15.2, 15.2, 14.75, 14.75, 14.75, 14.75, 14.75, 14.75, 15.2, 15.2, 15.2, 15.65, 15.65, 15.2, 15.2, 15.2, 15.2, 15.2, 15.2, 15.2, 15.2, 15.2, 15.2, 15.2, 15.2, 14.75, 14.75, 14.75, 14.75, 14.3, 14.3, 14.3, 14.3, 14.3, 13.86, 13.41, 12.07, 11.18, 9.83, 9.39, 8.94, 8.49, 8.05, 9.39, 9.83, 9.39, 8.49, 8.05, 8.05, 8.05, 8.49, 8.05, 8.49, 8.49, 8.94, 8.94, 8.94, 8.49, 8.94, 9.39, 9.83, 9.83, 20.12, 20.12, 20.12, 19.67, 19.67, 19.67, 19.67, 19.67, 19.67, 19.67, 19.22, 19.22, 19.22, 19.22, 19.22, 18.78, 18.78, 18.78, 18.78, 18.33, 18.33, 18.33, 18.78, 18.33, 18.33, 17.88, 17.88, 17.43, 17.43, 16.99, 16.99, 16.99, 16.54, 16.54, 16.09, 16.09, 15.65, 15.65, 15.2, 15.2, 15.2, 15.2, 15.2, 15.2, 15.2, 15.2, 15.65, 15.65, 15.65, 15.65, 15.65, 15.65, 15.2, 15.2, 15.2, 15.2, 15.2, 15.2, 15.2, 15.2, 15.2, 15.2, 14.75, 14.75, 14.75, 14.75, 14.75, 14.3, 14.3, 14.3, 14.3, 13.86, 12.52, 10.73, 9.83, 9.83, 9.83, 9.39, 8.49, 8.49, 9.83, 9.39, 8.49, 8.05, 8.05, 8.05, 8.49, 8.49, 8.49, 8.94, 8.94, 9.39, 9.39, 8.94, 9.39, 9.83, 9.83, 9.83, 21.01, 21.01, 21.01, 20.56, 20.56, 20.56, 20.56, 20.56, 20.12, 20.12, 20.12, 20.12, 20.12, 20.12, 19.67, 19.67, 19.67, 19.22, 19.22, 19.22, 19.22, 19.67, 19.22, 19.22, 18.78, 18.33, 18.33, 17.88, 17.88, 17.43, 17.43, 17.43, 16.99, 16.99, 16.54, 16.54, 16.09, 16.09, 15.65, 15.65, 15.2, 15.2, 15.65, 15.65, 15.65, 15.65, 15.65, 15.65, 15.65, 15.65, 15.65, 15.65, 15.65, 15.2, 15.65, 15.65, 15.65, 15.65, 15.65, 15.65, 15.2, 15.2, 15.2, 15.2, 15.2, 15.2, 15.2, 14.75, 14.3, 14.3, 14.75, 14.3, 13.41, 10.73, 9.39, 9.83, 10.28, 9.83, 8.94, 8.49, 8.94, 9.39, 8.94, 8.05, 8.05, 8.05, 8.05, 8.49, 8.49, 8.94, 9.39, 9.83, 9.83, 9.83, 9.83, 9.83, 9.83, 9.83, 21.9, 21.9, 21.9, 21.46, 21.46, 21.46, 21.46, 21.46, 21.01, 21.01, 21.01, 21.01, 21.01, 20.56, 20.56, 20.56, 20.12, 20.12, 20.12, 20.56, 20.56, 20.12, 20.12, 19.67, 19.22, 19.22, 18.78, 18.33, 18.33, 17.88, 17.88, 17.43, 17.43, 16.99, 16.99, 16.54, 16.54, 16.09, 16.09, 15.65, 15.65, 15.65, 15.65, 15.65, 16.09, 16.09, 16.09, 16.09, 16.09, 16.09, 16.09, 16.09, 16.09, 15.65, 15.65, 15.65, 15.65, 15.65, 15.65, 15.65, 15.65, 15.65, 15.2, 15.2, 15.2, 15.2, 15.2, 15.2, 15.2, 14.75, 14.75, 14.75, 14.3, 11.62, 9.39, 9.83, 10.73, 9.83, 9.39, 8.94, 8.94, 8.94, 8.49, 8.49, 8.05, 8.05, 8.05, 8.05, 8.49, 8.94, 9.39, 9.83, 10.28, 10.28, 10.28, 10.28, 10.28, 10.28, 22.8, 22.8, 22.8, 22.35, 22.35, 22.35, 22.35, 22.35, 21.9, 21.9, 21.9, 21.9, 21.9, 21.9, 21.46, 21.46, 21.01, 21.46, 21.46, 21.46, 21.01, 21.01, 20.56, 20.56, 20.12, 19.67, 19.22, 19.22, 18.78, 18.33, 18.33, 17.88, 17.88, 17.43, 17.43, 16.99, 16.99, 16.54, 16.54, 16.09, 16.09, 16.09, 16.09, 16.09, 16.09, 16.09, 16.09, 16.09, 16.09, 16.09, 16.09, 16.09, 16.09, 16.09, 16.09, 16.09, 16.09, 15.65, 15.65, 15.65, 15.65, 15.65, 15.65, 15.65, 15.65, 15.65, 15.65, 15.65, 15.65, 15.2, 15.2, 15.2, 14.75, 12.96, 10.28, 9.83, 10.73, 10.28, 9.39, 9.39, 8.94, 8.94, 8.49, 8.49, 8.49, 8.05, 8.05, 8.05, 8.49, 8.94, 9.39, 9.83, 10.28, 10.73, 10.73, 10.28, 10.73, 10.73, 23.69, 23.69, 23.69, 23.69, 23.25, 23.25, 23.25, 23.25, 22.8, 22.8, 22.8, 22.8, 22.8, 22.35, 22.35, 21.9, 22.35, 22.35, 21.9, 21.9, 21.9, 21.46, 21.01, 21.01, 20.56, 20.12, 20.12, 19.67, 19.22, 18.78, 18.78, 18.33, 18.33, 17.88, 17.88, 17.43, 16.99, 16.99, 16.54, 16.54, 16.54, 16.09, 16.09, 16.54, 16.54, 16.54, 16.54, 16.54, 16.54, 16.54, 16.54, 16.54, 16.54, 16.54, 16.09, 16.09, 16.09, 16.09, 16.09, 16.09, 16.09, 15.65, 15.65, 15.65, 15.65, 15.65, 15.65, 16.09, 16.09, 15.65, 15.65, 15.65, 14.75, 13.41, 11.62, 10.28, 10.28, 9.83, 9.39, 9.39, 9.39, 8.94, 8.49, 8.49, 8.49, 8.49, 8.05, 8.05, 8.49, 8.94, 9.39, 9.83, 10.28, 10.73, 11.18, 10.73, 10.73, 10.73, 24.59, 24.59, 24.59, 24.59, 24.14, 24.14, 24.14, 24.14, 23.69, 23.69, 23.69, 23.69, 23.25, 23.25, 23.69, 23.69, 23.25, 22.8, 22.8, 22.35, 22.35, 21.9, 21.46, 21.46, 21.01, 20.56, 20.56, 20.12, 19.67, 19.22, 19.22, 18.78, 18.33, 18.33, 17.88, 17.88, 17.43, 17.43, 16.99, 16.99, 16.54, 16.54, 16.54, 16.54, 16.54, 16.54, 16.54, 16.54, 16.54, 16.54, 16.54, 16.54, 16.54, 16.54, 16.54, 16.54, 16.09, 16.54, 16.54, 16.54, 16.09, 16.09, 16.09, 16.09, 16.09, 16.09, 16.09, 16.09, 16.09, 16.09, 16.09, 16.09, 15.2, 13.86, 12.07, 11.18, 10.28, 9.83, 9.39, 9.83, 9.39, 8.94, 8.49, 8.49, 8.49, 8.49, 8.05, 8.05, 8.49, 8.94, 9.39, 9.83, 10.73, 11.18, 11.18, 11.62, 11.18, 11.18, 25.48, 25.48, 25.48, 25.03, 25.03, 25.03, 25.03, 24.59, 24.59, 24.59, 24.14, 24.14, 24.14, 24.59, 24.59, 24.14, 23.69, 23.69, 23.25, 22.8, 22.8, 22.35, 21.9, 21.9, 21.46, 21.01, 21.01, 20.56, 20.12, 19.67, 19.67, 19.22, 18.78, 18.78, 18.33, 17.88, 17.88, 17.43, 17.43, 17.43, 16.99, 16.99, 16.99, 16.99, 16.99, 16.99, 16.99, 16.99, 16.99, 16.99, 16.99, 16.99, 16.99, 16.99, 16.54, 16.54, 16.54, 16.54, 16.54, 16.54, 16.54, 16.54, 16.09, 16.09, 16.09, 16.09, 16.54, 16.09, 16.54, 16.54, 16.54, 16.54, 15.65, 14.3, 12.96, 12.07, 10.73, 9.83, 9.39, 9.83, 9.39, 8.94, 8.49, 8.49, 8.49, 8.05, 8.05, 8.05, 8.05, 8.94, 9.39, 10.28, 10.73, 11.18, 11.62, 12.07, 11.62, 11.62, 26.37, 26.37, 25.93, 25.93, 25.93, 25.48, 25.48, 25.48, 25.03, 25.03, 25.03, 25.03, 25.48, 25.03, 25.03, 25.03, 24.14, 24.14, 23.69, 23.25, 23.25, 22.8, 22.35, 21.9, 21.9, 21.46, 21.01, 21.01, 20.56, 20.12, 19.67, 19.67, 19.22, 18.78, 18.78, 18.33, 18.33, 17.88, 17.88, 17.43, 17.43, 17.43, 17.43, 16.99, 16.99, 16.99, 16.99, 16.99, 16.99, 16.99, 16.99, 16.99, 16.99, 16.99, 16.99, 16.99, 16.54, 16.99, 16.99, 16.99, 16.99, 16.99, 16.54, 16.54, 16.54, 16.54, 16.54, 16.54, 16.54, 16.54, 16.99, 16.99, 16.54, 14.75, 12.96, 12.07, 11.18, 10.28, 9.39, 9.39, 9.39, 8.94, 8.49, 8.05, 8.05, 8.05, 7.6, 8.05, 8.05, 8.94, 9.39, 10.28, 10.73, 11.18, 12.07, 12.52, 12.52, 12.07, 26.82, 26.82, 26.82, 26.82, 26.37, 26.37, 25.93, 25.93, 25.93, 25.48, 25.48, 25.93, 25.93, 25.93, 25.48, 25.48, 25.03, 24.59, 24.14, 23.69, 23.25, 23.25, 22.8, 22.35, 21.9, 21.9, 21.46, 21.46, 21.01, 20.56, 20.12, 20.12, 19.67, 19.22, 18.78, 18.78, 18.33, 18.33, 17.88, 17.88, 17.88, 17.88, 17.43, 17.43, 17.43, 17.43, 17.43, 17.43, 17.43, 16.99, 16.99, 16.99, 16.99, 16.99, 16.99, 16.99, 16.99, 16.99, 16.99, 16.99, 16.99, 16.99, 16.99, 16.54, 16.54, 16.99, 16.99, 16.54, 16.54, 16.99, 16.99, 16.99, 16.99, 16.09, 13.86, 12.52, 11.62, 10.28, 9.83, 9.83, 9.39, 8.49, 8.05, 8.05, 7.6, 7.6, 7.6, 7.6, 8.05, 8.94, 9.83, 10.28, 11.18, 11.62, 12.07, 12.52, 12.96, 12.52, 27.72, 27.72, 27.27, 27.27, 26.82, 26.82, 26.82, 26.37, 26.37, 26.37, 26.37, 26.37, 26.37, 25.93, 25.93, 25.48, 25.48, 25.03, 24.59, 24.14, 23.69, 23.25, 23.25, 22.8, 22.35, 22.35, 21.9, 21.46, 21.46, 21.01, 20.56, 20.12, 20.12, 19.67, 19.22, 18.78, 18.78, 18.33, 18.33, 18.33, 18.33, 17.88, 17.88, 17.88, 17.43, 17.43, 17.43, 17.43, 17.43, 17.43, 17.43, 17.43, 17.43, 17.43, 17.43, 16.99, 16.99, 17.43, 17.43, 17.43, 17.43, 17.43, 17.43, 16.99, 16.99, 16.99, 16.99, 16.99, 16.99, 16.99, 16.99, 17.43, 17.43, 16.99, 15.2, 12.96, 11.62, 10.73, 10.28, 9.83, 8.94, 8.05, 7.6, 7.6, 7.6, 7.15, 7.15, 7.6, 8.49, 9.39, 9.83, 10.73, 11.18, 11.62, 12.52, 12.96, 12.96, 12.96, 28.16, 28.16, 27.72, 27.72, 27.27, 27.27, 27.27, 26.82, 26.82, 27.27, 26.82, 26.82, 26.37, 26.37, 25.93, 25.93, 25.48, 25.48, 24.59, 24.59, 24.14, 23.69, 23.25, 23.25, 22.8, 22.35, 22.35, 21.9, 21.46, 21.46, 21.01, 20.56, 20.12, 19.67, 19.67, 19.22, 19.22, 18.78, 18.78, 18.33, 18.33, 18.33, 18.33, 18.33, 17.88, 17.43, 17.88, 17.88, 17.43, 17.43, 17.43, 17.43, 17.43, 17.43, 17.43, 17.43, 17.43, 17.43, 17.43, 17.43, 17.43, 17.43, 17.43, 17.43, 17.43, 17.43, 16.99, 16.99, 16.99, 16.99, 16.99, 17.43, 17.43, 17.43, 16.54, 14.75, 12.07, 10.73, 10.73, 10.28, 8.94, 8.05, 7.6, 7.15, 7.15, 7.15, 7.15, 7.6, 8.49, 9.39, 10.28, 10.73, 11.18, 11.62, 12.52, 12.96, 12.96, 12.96, 28.16, 28.16, 28.16, 27.72, 27.72, 27.72, 27.27, 27.27, 27.72, 27.27, 27.27, 26.82, 26.82, 26.37, 26.37, 25.93, 25.93, 25.48, 25.03, 24.59, 24.14, 24.14, 23.69, 23.25, 23.25, 22.8, 22.35, 22.35, 21.9, 21.46, 21.01, 21.01, 20.56, 20.12, 19.67, 19.67, 19.22, 19.22, 18.78, 18.78, 18.78, 18.78, 18.33, 18.33, 18.33, 17.88, 17.88, 17.88, 17.88, 17.88, 17.88, 17.43, 17.43, 17.43, 17.43, 17.43, 17.88, 17.88, 17.88, 17.88, 17.88, 17.88, 17.88, 17.43, 17.43, 17.43, 17.43, 17.43, 17.43, 16.99, 16.99, 16.99, 16.99, 16.99, 16.99, 16.09, 14.3, 11.62, 10.73, 10.28, 9.39, 8.05, 7.15, 7.15, 6.71, 6.71, 7.15, 7.6, 8.94, 9.83, 10.28, 10.73, 11.18, 12.07, 12.96, 13.41, 13.41, 13.41, 28.61, 28.61, 28.61, 28.16, 28.16, 27.72, 27.72, 27.72, 27.72, 27.72, 27.27, 27.27, 26.82, 26.82, 26.37, 26.37, 25.93, 25.93, 25.48, 25.03, 24.59, 24.14, 23.69, 23.69, 23.25, 23.25, 22.8, 22.35, 21.9, 21.9, 21.46, 21.01, 20.56, 20.56, 20.12, 19.67, 19.67, 19.22, 19.22, 19.22, 18.78, 18.78, 18.78, 18.33, 18.33, 18.33, 17.88, 17.88, 17.88, 17.88, 17.88, 17.88, 17.88, 17.88, 17.88, 17.88, 17.88, 17.88, 17.88, 17.88, 17.88, 17.88, 17.88, 17.88, 17.88, 17.88, 17.43, 17.43, 17.43, 17.43, 16.99, 17.43, 16.99, 16.99, 16.99, 16.54, 15.65, 13.41, 11.62, 10.73, 9.39, 7.6, 7.15, 6.71, 6.71, 6.26, 6.71, 8.05, 8.94, 9.83, 10.28, 10.73, 11.18, 12.52, 12.96, 13.41, 13.41, 13.41, 29.06, 29.06, 28.61, 28.61, 28.16, 28.16, 28.16, 28.16, 28.16, 27.72, 27.72, 27.27, 27.27, 26.82, 26.82, 26.37, 25.93, 25.93, 25.48, 25.03, 24.59, 24.59, 24.14, 23.69, 23.69, 23.25, 22.8, 22.8, 22.35, 21.9, 21.46, 21.46, 21.01, 20.56, 20.56, 20.12, 19.67, 19.67, 19.67, 19.22, 19.22, 19.22, 18.78, 18.78, 18.78, 18.33, 18.33, 18.33, 18.33, 17.88, 17.88, 17.88, 17.88, 17.88, 17.88, 18.33, 18.33, 18.33, 18.33, 18.33, 18.33, 17.88, 17.88, 17.88, 17.88, 17.88, 17.88, 17.88, 17.43, 17.43, 17.43, 17.43, 17.43, 16.99, 16.99, 16.54, 16.09, 14.75, 12.96, 11.18, 9.39, 7.6, 6.71, 6.71, 6.71, 6.26, 6.71, 7.6, 8.94, 9.83, 10.28, 11.18, 12.07, 12.52, 12.96, 13.41, 13.41, 13.41, 29.06, 29.06, 29.06, 28.61, 28.61, 28.61, 28.16, 28.16, 28.16, 27.72, 27.72, 27.27, 27.27, 26.82, 26.82, 26.37, 26.37, 25.93, 25.48, 25.48, 24.59, 24.59, 24.14, 24.14, 23.69, 23.25, 23.25, 22.8, 22.35, 22.35, 21.9, 21.46, 21.01, 21.01, 20.56, 20.56, 20.12, 20.12, 19.67, 19.67, 19.22, 19.22, 19.22, 18.78, 18.78, 18.78, 18.33, 18.33, 18.33, 18.33, 18.33, 18.33, 18.33, 18.33, 18.33, 18.33, 18.33, 18.33, 18.33, 18.33, 18.33, 18.33, 18.33, 17.88, 17.88, 17.88, 17.88, 17.88, 17.88, 17.43, 17.43, 17.43, 17.43, 16.99, 16.99, 16.54, 16.09, 15.65, 14.3, 12.96, 10.28, 7.6, 6.26, 6.71, 6.71, 6.26, 6.71, 7.6, 8.94, 9.83, 10.73, 11.18, 12.07, 12.52, 12.96, 13.41, 13.41, 13.41, 29.06, 29.06, 29.06, 29.06, 28.61, 28.61, 28.61, 28.16, 28.16, 27.72, 27.72, 27.72, 27.27, 27.27, 26.82, 26.37, 26.37, 25.93, 25.93, 25.48, 25.03, 24.59, 24.14, 24.14, 23.69, 23.69, 23.25, 22.8, 22.8, 22.35, 21.9, 21.9, 21.46, 21.01, 21.01, 20.56, 20.56, 20.12, 20.12, 19.67, 19.67, 19.67, 19.22, 19.22, 18.78, 18.78, 18.78, 18.78, 18.33, 18.33, 18.33, 18.33, 18.33, 18.78, 18.78, 18.78, 18.78, 18.78, 18.78, 18.78, 18.33, 18.33, 18.33, 18.33, 18.33, 18.33, 18.33, 17.88, 17.88, 17.88, 17.43, 17.43, 17.43, 16.99, 16.99, 16.54, 16.54, 15.65, 14.75, 13.86, 12.07, 8.94, 6.26, 6.26, 6.71, 6.71, 6.71, 7.6, 8.94, 10.28, 10.73, 11.18, 12.07, 12.52, 12.96, 13.41, 13.41, 13.41, 29.06, 29.06, 29.06, 29.06, 28.61, 28.61, 28.61, 28.16, 28.16, 27.72, 27.72, 27.72, 27.27, 27.27, 26.82, 26.37, 26.37, 25.93, 25.93, 25.48, 25.03, 24.59, 24.59, 24.14, 23.69, 23.69, 23.25, 23.25, 22.8, 22.35, 22.35, 21.9, 21.46, 21.46, 21.01, 21.01, 20.56, 20.56, 20.12, 20.12, 19.67, 19.67, 19.22, 19.22, 19.22, 18.78, 18.78, 18.78, 18.78, 18.78, 18.78, 18.78, 18.78, 18.78, 19.22, 19.22, 18.78, 18.78, 18.78, 18.78, 18.78, 18.33, 18.33, 18.33, 18.33, 18.33, 18.33, 18.33, 17.88, 17.88, 17.88, 17.43, 17.43, 16.99, 16.99, 16.99, 16.54, 16.09, 15.65, 14.75, 13.41, 11.18, 7.6, 5.36, 6.71, 7.6, 7.6, 8.05, 9.39, 10.28, 10.73, 11.18, 12.07, 12.52, 12.96, 13.41, 13.41, 13.41, 29.06, 29.06, 29.06, 28.61, 28.61, 28.61, 28.16, 28.16, 28.16, 27.72, 27.72, 27.27, 27.27, 26.82, 26.82, 26.37, 26.37, 25.93, 25.93, 25.48, 25.48, 24.59, 24.59, 24.14, 24.14, 23.69, 23.69, 23.25, 22.8, 22.8, 22.35, 21.9, 21.9, 21.46, 21.01, 21.01, 21.01, 20.56, 20.56, 20.12, 20.12, 19.67, 19.67, 19.22, 19.22, 19.22, 19.22, 18.78, 18.78, 18.78, 18.78, 19.22, 19.22, 19.22, 19.22, 19.22, 19.22, 19.22, 18.78, 18.78, 18.78, 18.78, 18.33, 18.33, 18.33, 18.33, 18.33, 18.33, 18.33, 17.88, 17.88, 17.88, 17.43, 17.43, 16.99, 16.99, 16.54, 16.54, 16.09, 15.2, 14.3, 12.96, 10.28, 6.26, 6.26, 8.05, 8.49, 8.94, 9.83, 10.28, 11.18, 11.62, 12.07, 12.52, 13.41, 13.41, 13.41, 13.41, 29.06, 29.06, 28.61, 28.61, 28.61, 28.16, 28.16, 28.16, 27.72, 27.72, 27.72, 27.27, 27.27, 26.82, 26.82, 26.37, 26.37, 25.93, 25.93, 25.48, 25.48, 24.59, 24.59, 24.14, 24.14, 23.69, 23.69, 23.25, 23.25, 22.8, 22.35, 22.35, 21.9, 21.46, 21.46, 21.01, 21.01, 21.01, 20.56, 20.56, 20.12, 20.12, 19.67, 19.67, 19.67, 19.22, 19.22, 19.22, 19.22, 19.22, 19.22, 19.22, 19.67, 19.67, 19.67, 19.22, 19.22, 19.22, 19.22, 18.78, 18.78, 18.78, 18.78, 18.78, 18.78, 18.78, 18.33, 18.33, 17.88, 17.88, 17.88, 17.88, 17.88, 17.43, 17.43, 16.99, 16.99, 16.54, 16.54, 15.65, 15.2, 14.3, 12.52, 8.49, 6.26, 8.49, 8.94, 9.83, 10.28, 10.28, 11.18, 11.62, 12.52, 12.96, 13.41, 13.41, 13.41, 13.41, 29.06, 28.61, 28.61, 28.61, 28.16, 28.16, 28.16, 27.72, 27.72, 27.72, 27.27, 27.27, 27.27, 26.82, 26.82, 26.37, 26.37, 25.93, 25.93, 25.48, 25.48, 25.03, 24.59, 24.59, 24.14, 24.14, 23.69, 23.25, 23.25, 22.8, 22.8, 22.35, 21.9, 21.9, 21.46, 21.46, 21.01, 21.01, 20.56, 20.56, 20.56, 20.12, 20.12, 19.67, 19.67, 19.67, 19.67, 19.67, 19.67, 19.67, 19.67, 19.67, 19.67, 19.67, 19.67, 19.67, 19.22, 19.22, 19.22, 18.78, 18.78, 18.78, 18.78, 18.78, 18.78, 18.78, 18.78, 18.33, 18.33, 17.88, 17.88, 17.43, 17.43, 17.43, 17.43, 17.43, 16.99, 16.99, 16.54, 16.09, 15.65, 15.2, 13.86, 10.28, 8.05, 8.94, 8.94, 10.28, 10.73, 10.73, 10.73, 11.62, 12.52, 12.96, 13.41, 13.41, 13.41, 13.41, 28.61, 28.61, 28.16, 28.16, 28.16, 28.16, 27.72, 27.72, 27.72, 27.27, 27.27, 27.27, 26.82, 26.82, 26.82, 26.37, 26.37, 25.93, 25.48, 25.48, 25.48, 25.03, 24.59, 24.59, 24.14, 24.14, 23.69, 23.69, 23.25, 22.8, 22.8, 22.35, 22.35, 21.9, 21.9, 21.46, 21.46, 21.01, 21.01, 20.56, 20.56, 20.12, 20.12, 20.12, 20.12, 20.12, 20.12, 20.12, 20.12, 20.12, 20.12, 20.12, 20.12, 19.67, 19.67, 19.67, 19.22, 19.22, 19.22, 19.22, 19.22, 19.22, 18.78, 18.78, 18.78, 18.78, 18.78, 18.78, 18.33, 18.33, 17.88, 17.43, 17.43, 17.43, 17.43, 17.43, 17.43, 16.99, 16.54, 16.54, 16.54, 15.65, 14.75, 7.6, 8.05, 8.49, 9.39, 10.28, 11.18, 11.18, 11.18, 11.62, 12.52, 12.96, 13.41, 13.86, 13.86, 13.86, 28.16, 28.16, 28.16, 28.16, 27.72, 27.72, 27.72, 27.72, 27.27, 27.27, 27.27, 27.27, 26.82, 26.82, 26.37, 26.37, 25.93, 25.93, 25.48, 25.48, 25.48, 25.03, 24.59, 24.59, 24.14, 24.14, 23.69, 23.69, 23.25, 23.25, 22.8, 22.35, 22.35, 21.9, 21.9, 21.9, 21.46, 21.46, 21.01, 21.01, 20.56, 20.56, 20.56, 20.56, 20.12, 20.12, 20.12, 20.56, 20.56, 20.56, 20.56, 20.56, 20.12, 20.12, 19.67, 19.67, 19.22, 19.22, 19.22, 19.22, 19.22, 19.22, 19.22, 19.22, 18.78, 18.78, 18.78, 18.78, 18.78, 18.33, 18.33, 17.88, 17.88, 17.43, 17.88, 17.43, 17.43, 17.43, 16.99, 16.99, 16.54, 16.54, 12.52, 8.05, 7.6, 8.49, 9.39, 10.28, 11.18, 11.18, 11.18, 11.62, 12.52, 12.96, 13.86, 13.86, 13.86, 13.86, 28.16, 28.16, 27.72, 27.72, 27.72, 27.72, 27.72, 27.27, 27.27, 27.27, 27.27, 26.82, 26.82, 26.82, 26.37, 26.37, 25.93, 25.93, 25.48, 25.48, 25.48, 25.03, 25.03, 24.59, 24.14, 24.14, 23.69, 23.69, 23.25, 23.25, 22.8, 22.8, 22.35, 22.35, 21.9, 21.9, 21.9, 21.46, 21.46, 21.01, 21.01, 21.01, 21.01, 20.56, 20.56, 20.56, 20.56, 20.56, 20.56, 20.56, 20.56, 20.56, 20.12, 20.12, 19.67, 19.67, 19.67, 19.67, 19.22, 19.22, 19.22, 19.22, 19.22, 19.22, 19.22, 18.78, 18.78, 18.78, 18.78, 18.33, 18.33, 18.33, 17.88, 17.88, 17.88, 17.88, 17.88, 17.43, 17.43, 16.99, 16.99, 16.99, 13.86, 9.39, 7.15, 8.49, 9.83, 10.28, 11.18, 11.18, 11.18, 11.18, 12.07, 12.96, 13.86, 13.86, 13.86, 13.86, 27.72, 27.72, 27.72, 27.72, 27.72, 27.27, 27.27, 27.27, 27.27, 27.27, 26.82, 26.82, 26.82, 26.37, 26.37, 26.37, 25.93, 25.93, 25.48, 25.48, 25.48, 25.03, 25.03, 24.59, 24.59, 24.14, 24.14, 23.69, 23.69, 23.25, 22.8, 22.8, 22.8, 22.35, 22.35, 21.9, 21.9, 21.9, 21.46, 21.46, 21.46, 21.46, 21.01, 21.01, 21.01, 21.01, 21.01, 21.01, 21.01, 21.01, 20.56, 20.56, 20.12, 20.12, 19.67, 19.67, 19.67, 19.67, 19.67, 19.67, 19.67, 19.67, 19.22, 19.22, 19.22, 19.22, 18.78, 18.78, 18.78, 18.78, 18.33, 18.33, 18.33, 17.88, 17.88, 17.88, 17.88, 17.88, 17.88, 17.43, 17.43, 16.54, 15.2, 11.18, 7.15, 8.49, 10.28, 10.73, 10.73, 11.18, 11.18, 11.18, 12.07, 12.96, 13.86, 13.86, 13.86, 13.86, 27.72, 27.72, 27.27, 27.27, 27.27, 27.27, 27.27, 27.27, 27.27, 26.82, 26.82, 26.82, 26.37, 26.37, 26.37, 25.93, 25.93, 25.93, 25.48, 25.48, 25.48, 25.03, 25.03, 24.59, 24.59, 24.14, 24.14, 23.69, 23.69, 23.25, 23.25, 22.8, 22.8, 22.35, 22.35, 22.35, 22.35, 21.9, 21.9, 21.9, 21.9, 21.9, 21.46, 21.46, 21.46, 21.46, 21.46, 21.01, 21.01, 21.01, 20.56, 20.12, 20.12, 20.12, 19.67, 19.67, 19.67, 19.67, 19.67, 19.67, 19.67, 19.67, 19.67, 19.22, 19.22, 19.22, 19.22, 18.78, 18.78, 18.78, 18.78, 18.33, 18.33, 18.33, 18.33, 17.88, 18.33, 17.88, 17.88, 17.88, 17.43, 16.99, 16.09, 13.86, 9.39, 8.49, 10.73, 11.18, 10.73, 11.18, 11.62, 11.62, 12.07, 12.96, 13.86, 13.86, 13.86, 13.86, 27.27, 27.27, 27.27, 27.27, 27.27, 27.27, 26.82, 26.82, 26.82, 26.82, 26.82, 26.82, 26.37, 26.37, 25.93, 25.93, 25.93, 25.93, 25.48, 25.48, 25.48, 25.03, 25.03, 24.59, 24.59, 24.14, 24.14, 23.69, 23.69, 23.25, 23.25, 23.25, 22.8, 22.8, 22.8, 22.8, 22.35, 22.35, 22.35, 22.35, 22.35, 21.9, 21.9, 21.9, 21.46, 21.46, 21.46, 21.01, 21.01, 20.56, 20.56, 20.12, 20.12, 20.12, 20.12, 20.12, 20.12, 20.12, 20.12, 19.67, 19.67, 19.67, 19.67, 19.67, 19.22, 19.22, 19.22, 19.22, 19.22, 18.78, 18.78, 18.78, 18.78, 18.33, 18.33, 18.33, 18.33, 18.33, 17.88, 17.88, 17.88, 17.43, 16.99, 15.2, 11.62, 9.39, 10.73, 11.18, 11.18, 11.18, 11.62, 12.07, 12.52, 13.41, 13.86, 13.86, 13.86, 13.86, 27.27, 27.27, 26.82, 26.82, 26.82, 26.82, 26.82, 26.82, 26.82, 26.82, 26.37, 26.37, 26.37, 25.93, 25.93, 25.93, 25.93, 25.48, 25.48, 25.48, 25.03, 25.03, 25.03, 24.59, 24.14, 24.14, 24.14, 23.69, 23.69, 23.69, 23.25, 23.25, 23.25, 23.25, 22.8, 22.8, 22.8, 22.8, 22.8, 22.35, 22.35, 22.35, 21.9, 21.9, 21.46, 21.46, 21.01, 21.01, 21.01, 20.56, 20.56, 20.12, 20.12, 20.12, 20.12, 20.12, 20.12, 20.12, 20.12, 20.12, 19.67, 19.67, 19.67, 19.67, 19.22, 19.22, 19.22, 19.22, 19.22, 19.22, 18.78, 18.78, 18.78, 18.78, 18.78, 18.33, 18.33, 18.33, 18.33, 18.33, 17.88, 17.88, 17.43, 16.09, 13.41, 10.73, 10.73, 11.18, 11.18, 11.18, 11.62, 12.52, 12.96, 13.41, 13.86, 13.86, 13.86, 13.86, 26.82, 26.82, 26.82, 26.82, 26.82, 26.82, 26.82, 26.37, 26.37, 26.37, 26.37, 26.37, 25.93, 25.93, 25.93, 25.93, 25.48, 25.48, 25.48, 25.03, 25.03, 25.03, 25.03, 24.59, 24.14, 24.14, 24.14, 23.69, 23.69, 23.69, 23.69, 23.25, 23.25, 23.25, 23.25, 23.25, 23.25, 22.8, 22.8, 22.8, 22.35, 22.35, 21.9, 21.9, 21.46, 21.46, 21.01, 21.01, 20.56, 20.56, 20.56, 20.56, 20.56, 20.56, 20.56, 20.56, 20.12, 20.12, 20.12, 20.12, 20.12, 19.67, 19.67, 19.67, 19.67, 19.22, 19.22, 19.22, 19.22, 19.22, 19.22, 19.22, 18.78, 18.78, 18.78, 18.78, 18.33, 18.33, 18.33, 18.78, 18.33, 18.33, 17.88, 16.99, 14.75, 12.07, 11.18, 11.18, 11.62, 11.62, 11.62, 12.52, 12.96, 13.41, 13.86, 13.41, 13.41, 13.41, 26.37, 26.37, 26.37, 26.37, 26.37, 26.37, 26.37, 26.37, 26.37, 25.93, 25.93, 25.93, 25.93, 25.93, 25.48, 25.48, 25.48, 25.48, 25.03, 25.03, 25.03, 25.03, 24.59, 24.59, 24.14, 24.14, 24.14, 24.14, 23.69, 23.69, 23.69, 23.69, 23.69, 23.25, 23.25, 23.25, 23.25, 22.8, 22.8, 22.35, 22.35, 21.9, 21.9, 21.46, 21.46, 21.01, 21.01, 21.01, 20.56, 20.56, 20.56, 20.56, 20.56, 20.56, 20.56, 20.56, 20.56, 20.12, 20.12, 20.12, 20.12, 19.67, 19.67, 19.67, 19.67, 19.67, 19.22, 19.22, 19.22, 19.22, 19.22, 19.22, 19.22, 18.78, 18.78, 18.78, 18.78, 18.78, 18.78, 18.78, 18.78, 18.33, 18.33, 17.43, 16.09, 13.86, 12.07, 11.62, 11.62, 11.62, 11.62, 12.52, 12.96, 13.41, 13.86, 13.41, 13.41, 13.41, 26.37, 26.37, 26.37, 26.37, 26.37, 26.37, 26.37, 26.37, 26.37, 25.93, 25.93, 25.93, 25.93, 25.93, 25.48, 25.48, 25.48, 25.48, 25.03, 25.03, 25.03, 25.03, 24.59, 24.59, 24.14, 24.14, 24.14, 24.14, 23.69, 23.69, 23.69, 23.69, 23.69, 23.25, 23.25, 23.25, 23.25, 22.8, 22.8, 22.35, 22.35, 21.9, 21.9, 21.46, 21.46, 21.01, 21.01, 21.01, 20.56, 20.56, 20.56, 20.56, 20.56, 20.56, 20.56, 20.56, 20.56, 20.12, 20.12, 20.12, 20.12, 19.67, 19.67, 19.67, 19.67, 19.67, 19.22, 19.22, 19.22, 19.22, 19.22, 19.22, 19.22, 18.78, 18.78, 18.78, 18.78, 18.78, 18.78, 18.78, 18.78, 18.78, 18.33, 17.88, 16.54, 15.2, 13.41, 12.52, 12.07, 12.07, 12.07, 12.52, 12.96, 13.41, 13.86, 13.41, 13.41, 13.41]}, {"header": {"parameterCategory": 1, "parameterNumber": 3, "dx": 0.06612293990616946, "dy": 0.0552356325346848, "nx": 98, "ny": 59, "la1": 35.046912555036876, "la2": 31.78801023549047, "lo1": -121.43107172385933, "lo2": -114.95102361305473, "refTime": "2026041108"}, "data": [6.26, 6.71, 6.71, 6.71, 7.15, 7.15, 7.6, 8.05, 8.05, 8.49, 8.94, 8.94, 9.39, 9.83, 10.28, 10.73, 10.73, 11.18, 11.62, 11.62, 12.07, 12.07, 12.52, 12.96, 13.41, 13.86, 14.3, 14.75, 15.2, 15.2, 15.65, 16.09, 16.09, 16.09, 16.09, 16.09, 16.09, 16.09, 16.54, 16.54, 16.54, 16.09, 16.09, 15.65, 15.65, 15.65, 15.2, 15.65, 15.65, 15.2, 15.2, 15.65, 15.65, 16.09, 16.99, 17.43, 17.43, 17.88, 17.88, 18.33, 18.33, 18.33, 17.88, 17.43, 16.99, 16.54, 16.54, 16.54, 17.43, 17.88, 18.78, 19.22, 19.67, 19.67, 19.67, 19.67, 19.67, 19.22, 19.67, 20.12, 21.01, 21.46, 21.9, 21.9, 22.35, 22.35, 22.35, 22.8, 22.8, 22.8, 22.8, 22.35, 22.35, 21.9, 21.46, 21.46, 21.01, 21.01, 6.26, 6.71, 6.71, 6.71, 7.15, 7.15, 7.6, 8.05, 8.05, 8.49, 8.94, 9.39, 9.83, 9.83, 10.28, 10.73, 11.18, 11.18, 11.62, 12.07, 12.07, 12.07, 12.52, 12.96, 13.41, 13.86, 14.3, 14.75, 15.2, 15.2, 15.65, 16.09, 16.54, 16.54, 16.54, 16.54, 16.54, 16.54, 16.99, 16.54, 16.54, 16.09, 16.09, 15.65, 15.65, 15.65, 15.65, 15.65, 15.65, 15.65, 15.65, 15.65, 16.09, 16.54, 16.99, 17.43, 17.88, 17.88, 17.88, 17.88, 18.33, 17.88, 17.88, 17.43, 16.99, 16.54, 16.09, 16.54, 17.43, 17.88, 18.33, 19.22, 19.22, 19.67, 19.67, 19.67, 19.22, 19.22, 19.67, 20.12, 21.01, 21.46, 21.9, 21.9, 22.35, 22.35, 22.35, 22.8, 22.8, 22.8, 22.8, 22.35, 22.35, 21.9, 21.46, 21.46, 21.01, 21.01, 6.26, 6.71, 6.71, 6.71, 7.15, 7.15, 7.6, 8.05, 8.05, 8.49, 8.94, 9.39, 9.83, 10.28, 10.28, 10.73, 11.18, 11.62, 11.62, 12.07, 12.52, 12.52, 12.52, 12.96, 13.41, 13.86, 14.3, 14.75, 15.2, 15.2, 15.65, 15.65, 16.09, 16.54, 16.99, 16.99, 16.99, 16.99, 16.99, 16.99, 16.54, 16.09, 15.65, 15.65, 15.65, 15.65, 15.65, 15.65, 15.65, 15.65, 15.65, 16.09, 16.09, 16.99, 17.43, 17.43, 17.88, 17.88, 17.88, 17.88, 17.88, 17.88, 17.88, 17.43, 16.99, 16.54, 16.09, 16.54, 16.99, 17.88, 18.33, 18.78, 19.22, 19.22, 19.67, 19.22, 19.22, 19.22, 19.22, 20.12, 20.56, 21.01, 21.46, 21.46, 21.9, 21.9, 22.35, 22.35, 22.8, 22.8, 22.35, 22.35, 21.9, 21.9, 21.46, 21.46, 21.46, 21.01, 6.26, 6.26, 6.71, 6.71, 7.15, 7.15, 7.6, 8.05, 8.49, 8.49, 8.94, 9.39, 9.83, 10.28, 10.73, 10.73, 11.18, 11.62, 12.07, 12.07, 12.52, 12.96, 13.41, 13.41, 13.41, 13.86, 14.3, 14.75, 15.2, 15.2, 15.2, 15.65, 15.65, 15.65, 16.09, 16.54, 16.54, 16.54, 16.99, 16.54, 16.54, 16.54, 16.09, 16.09, 15.65, 15.65, 15.65, 15.65, 16.09, 16.09, 16.09, 16.09, 16.54, 16.99, 16.99, 17.43, 17.43, 17.43, 17.43, 17.43, 17.88, 17.88, 17.88, 17.43, 16.99, 16.54, 16.09, 15.65, 16.09, 16.99, 17.88, 18.78, 19.22, 19.22, 19.67, 19.67, 19.22, 18.78, 19.22, 20.12, 20.56, 21.01, 21.01, 21.46, 21.46, 21.9, 21.9, 22.35, 22.35, 22.35, 22.35, 22.35, 21.9, 21.9, 21.46, 21.46, 21.46, 21.01, 6.26, 6.26, 6.71, 6.71, 7.15, 7.6, 7.6, 8.05, 8.49, 8.94, 8.94, 9.39, 9.83, 10.28, 10.73, 10.73, 11.18, 11.62, 12.07, 12.52, 12.52, 12.96, 13.41, 13.86, 13.86, 13.86, 14.3, 14.3, 14.75, 15.2, 15.65, 15.65, 15.65, 15.65, 15.65, 15.65, 16.09, 16.09, 16.54, 16.54, 16.54, 16.54, 16.09, 16.09, 15.65, 15.65, 15.65, 16.09, 16.09, 16.09, 16.09, 16.09, 16.09, 16.54, 16.99, 16.99, 16.99, 16.99, 16.99, 17.43, 17.43, 17.88, 17.88, 17.88, 17.43, 16.54, 16.09, 15.2, 15.2, 15.2, 16.09, 16.99, 17.88, 18.78, 19.22, 19.22, 19.22, 18.78, 18.78, 20.12, 20.56, 21.01, 21.01, 21.01, 21.01, 21.46, 21.46, 21.9, 21.9, 22.35, 22.35, 22.35, 21.9, 21.9, 21.46, 21.46, 21.46, 21.01, 6.26, 6.26, 6.71, 6.71, 7.15, 7.6, 7.6, 8.05, 8.49, 8.94, 9.39, 9.39, 9.83, 10.28, 10.73, 11.18, 11.18, 11.62, 12.07, 12.52, 12.52, 12.96, 12.96, 13.41, 13.86, 14.3, 14.3, 14.3, 14.75, 15.2, 15.65, 16.09, 16.54, 16.54, 16.54, 16.54, 16.09, 16.09, 16.54, 16.99, 16.54, 16.09, 15.65, 15.2, 15.2, 15.2, 15.65, 15.65, 15.65, 15.65, 15.65, 15.65, 15.65, 16.09, 16.09, 16.54, 16.54, 16.99, 16.99, 16.99, 17.43, 17.88, 18.33, 17.88, 17.43, 16.54, 16.09, 15.2, 14.75, 14.3, 14.3, 15.2, 16.54, 17.43, 17.88, 18.33, 18.33, 18.33, 18.78, 19.67, 20.56, 20.56, 21.01, 21.01, 21.01, 21.01, 21.46, 21.46, 21.9, 21.9, 21.9, 21.9, 21.9, 21.9, 21.46, 21.46, 21.46, 21.01, 6.26, 6.26, 6.71, 6.71, 7.15, 7.6, 7.6, 8.05, 8.49, 8.94, 9.39, 9.83, 9.83, 10.28, 10.73, 11.18, 11.62, 11.62, 12.07, 12.52, 12.96, 13.41, 13.41, 13.41, 13.86, 14.3, 14.75, 14.75, 15.2, 15.65, 16.09, 16.54, 16.54, 16.99, 16.99, 16.54, 16.54, 16.54, 16.54, 16.99, 16.54, 16.09, 15.2, 14.75, 14.3, 14.75, 15.2, 15.2, 15.2, 15.2, 15.2, 15.2, 15.2, 15.65, 16.09, 16.54, 16.54, 16.54, 16.99, 16.99, 17.43, 17.88, 17.88, 17.88, 17.43, 16.99, 16.09, 15.2, 14.75, 13.86, 13.86, 14.75, 15.65, 16.54, 17.43, 17.43, 17.88, 18.33, 18.78, 19.22, 20.12, 20.56, 20.56, 20.56, 20.56, 21.01, 21.46, 21.9, 21.9, 21.9, 21.9, 21.9, 21.9, 21.9, 21.46, 21.46, 21.46, 21.01, 6.26, 6.26, 6.71, 7.15, 7.15, 7.6, 8.05, 8.05, 8.49, 8.94, 9.39, 9.83, 9.83, 10.28, 10.73, 11.18, 11.62, 12.07, 12.52, 12.96, 13.41, 13.86, 14.3, 14.3, 14.75, 14.75, 15.2, 15.65, 16.09, 16.09, 16.09, 16.09, 16.54, 16.54, 16.99, 16.99, 16.99, 16.99, 16.54, 16.99, 16.99, 16.09, 15.2, 14.75, 14.3, 14.75, 14.75, 14.75, 14.75, 14.75, 15.2, 15.2, 15.2, 15.65, 16.09, 16.54, 16.54, 16.54, 16.99, 16.99, 17.43, 17.43, 17.43, 17.88, 17.43, 16.99, 16.54, 15.65, 14.75, 14.3, 13.86, 14.3, 15.65, 16.54, 16.99, 16.99, 16.99, 17.43, 18.33, 18.78, 19.67, 20.12, 20.56, 20.56, 20.56, 21.01, 21.46, 21.9, 21.9, 21.9, 21.9, 21.9, 21.9, 21.9, 21.46, 21.46, 21.46, 21.46, 6.26, 6.26, 6.71, 7.15, 7.15, 7.6, 8.05, 8.05, 8.49, 8.94, 9.39, 9.83, 9.83, 10.28, 10.73, 11.18, 11.62, 12.07, 12.52, 12.52, 12.96, 13.41, 14.3, 14.75, 14.75, 15.2, 15.65, 16.09, 16.09, 16.09, 16.54, 16.54, 16.99, 16.99, 17.43, 17.43, 17.43, 17.43, 17.43, 17.43, 16.99, 16.54, 15.65, 14.75, 14.75, 14.75, 15.2, 15.2, 14.75, 14.75, 15.2, 15.2, 15.65, 15.65, 15.65, 16.09, 16.09, 16.09, 16.09, 16.54, 16.54, 16.99, 17.43, 17.43, 17.88, 17.43, 16.99, 16.09, 15.2, 14.3, 13.86, 14.3, 15.2, 16.54, 16.99, 16.99, 16.54, 16.99, 17.88, 18.78, 19.22, 20.12, 20.12, 20.56, 20.56, 21.01, 21.46, 21.9, 21.9, 21.9, 21.9, 21.9, 21.9, 21.9, 21.46, 21.46, 21.46, 21.46, 6.26, 6.71, 6.71, 7.15, 7.15, 7.6, 8.05, 8.49, 8.49, 8.94, 9.39, 9.83, 10.28, 10.28, 10.73, 11.18, 11.62, 11.62, 12.07, 12.52, 12.96, 13.41, 13.86, 14.3, 14.75, 15.2, 15.65, 16.09, 16.09, 16.09, 16.99, 16.99, 17.43, 17.43, 17.43, 17.43, 17.43, 17.88, 17.88, 17.88, 17.88, 17.43, 16.54, 15.2, 15.2, 15.65, 15.65, 15.65, 15.2, 15.2, 15.2, 15.2, 15.65, 15.65, 15.65, 15.65, 15.65, 15.2, 15.2, 15.65, 16.09, 16.54, 16.99, 17.43, 17.43, 17.43, 17.43, 16.54, 15.65, 14.3, 13.41, 13.86, 14.75, 16.09, 16.54, 16.54, 16.54, 16.99, 17.88, 18.33, 18.78, 19.22, 19.67, 20.12, 20.56, 21.01, 21.46, 21.9, 21.9, 21.9, 21.9, 21.9, 22.35, 21.9, 21.9, 21.9, 21.9, 21.46, 6.26, 6.71, 6.71, 7.15, 7.6, 7.6, 8.05, 8.49, 8.49, 8.94, 9.39, 9.83, 10.28, 10.73, 10.73, 11.18, 11.62, 12.07, 12.52, 12.52, 12.96, 13.41, 13.86, 14.3, 14.75, 15.2, 15.65, 15.65, 16.09, 16.54, 16.99, 17.43, 17.43, 17.43, 17.43, 17.43, 17.43, 17.88, 17.88, 17.88, 17.88, 17.43, 16.09, 16.09, 16.09, 16.09, 16.09, 16.09, 16.09, 16.09, 15.65, 15.2, 15.2, 14.75, 14.75, 14.75, 14.75, 14.75, 14.75, 15.2, 15.65, 16.09, 16.99, 16.99, 17.43, 17.88, 17.43, 16.99, 16.09, 14.75, 13.41, 13.41, 14.75, 16.09, 16.54, 16.54, 16.54, 16.99, 17.88, 18.33, 18.78, 19.22, 19.67, 20.12, 20.56, 21.01, 21.46, 21.9, 21.9, 21.9, 21.9, 21.9, 22.35, 22.35, 21.9, 21.9, 21.9, 21.46, 6.26, 6.71, 6.71, 7.15, 7.6, 7.6, 8.05, 8.49, 8.94, 8.94, 9.39, 9.83, 10.28, 10.73, 10.73, 11.18, 11.62, 12.07, 12.52, 12.96, 13.41, 13.86, 14.3, 14.75, 15.2, 15.2, 15.65, 16.09, 16.54, 16.99, 16.99, 17.43, 17.88, 17.88, 17.88, 17.88, 17.88, 18.33, 18.33, 17.88, 17.88, 15.2, 12.96, 15.2, 16.54, 16.54, 16.09, 16.09, 16.09, 16.09, 15.65, 15.65, 15.2, 14.75, 14.3, 13.86, 13.86, 14.3, 14.75, 15.2, 15.65, 16.54, 16.99, 16.99, 17.43, 17.43, 16.99, 16.54, 15.65, 14.3, 12.96, 12.96, 14.75, 16.09, 16.09, 16.54, 16.54, 17.43, 17.88, 18.78, 18.78, 18.78, 19.22, 20.12, 20.56, 21.01, 21.46, 21.9, 21.9, 21.9, 21.9, 22.35, 22.35, 22.35, 22.35, 21.9, 21.9, 21.46, 6.26, 6.71, 6.71, 7.15, 7.6, 8.05, 8.05, 8.49, 8.94, 8.94, 9.39, 9.83, 10.28, 10.73, 10.73, 11.18, 11.62, 12.07, 12.07, 12.52, 12.96, 13.41, 13.86, 14.3, 14.75, 15.2, 15.65, 16.09, 16.54, 16.99, 16.99, 17.43, 17.43, 17.43, 17.88, 17.88, 17.88, 17.88, 17.88, 17.43, 17.43, 12.52, 10.73, 14.3, 16.54, 16.54, 16.09, 16.09, 16.09, 16.09, 16.09, 16.09, 16.09, 15.65, 15.2, 15.2, 15.2, 15.2, 15.2, 15.65, 16.54, 16.99, 17.43, 17.43, 17.43, 17.43, 16.99, 16.09, 14.75, 13.41, 12.07, 12.52, 14.3, 15.65, 16.09, 16.09, 16.54, 17.43, 18.33, 18.78, 18.78, 18.78, 19.22, 19.67, 20.12, 20.56, 21.46, 21.9, 21.9, 21.9, 21.9, 22.35, 22.8, 22.8, 22.35, 22.35, 21.9, 21.9, 6.26, 6.71, 7.15, 7.15, 7.6, 8.05, 8.05, 8.49, 8.94, 9.39, 9.39, 9.83, 10.28, 10.73, 10.73, 11.18, 11.62, 12.07, 12.07, 12.52, 12.96, 13.41, 13.86, 14.3, 14.75, 15.2, 15.65, 16.09, 16.54, 16.54, 16.99, 16.99, 17.43, 17.43, 17.43, 17.88, 17.43, 17.43, 17.43, 17.43, 16.54, 13.86, 12.96, 14.75, 16.09, 16.09, 16.54, 16.54, 16.54, 16.54, 16.54, 16.54, 16.99, 16.99, 16.99, 16.99, 16.99, 16.99, 16.54, 16.54, 16.99, 17.43, 17.88, 17.88, 17.88, 17.88, 17.88, 17.43, 16.54, 15.2, 13.41, 12.96, 13.41, 14.75, 15.65, 16.09, 16.54, 17.43, 17.88, 18.33, 18.33, 18.78, 19.22, 19.67, 20.12, 20.56, 20.56, 21.01, 21.46, 21.46, 21.9, 22.35, 22.35, 22.8, 22.35, 22.35, 21.9, 21.9, 6.26, 6.71, 7.15, 7.15, 7.6, 8.05, 8.49, 8.49, 8.94, 9.39, 9.39, 9.83, 10.28, 10.73, 10.73, 11.18, 11.62, 12.07, 12.07, 12.52, 12.96, 13.41, 13.86, 14.3, 14.75, 15.2, 15.65, 16.09, 16.54, 16.54, 16.99, 16.99, 17.43, 17.43, 17.43, 17.43, 17.43, 17.43, 17.43, 16.99, 16.54, 15.65, 15.65, 16.09, 16.09, 16.09, 16.54, 16.54, 16.54, 16.54, 16.54, 16.54, 16.99, 16.99, 17.43, 17.43, 17.88, 17.88, 17.88, 17.43, 17.88, 18.33, 18.33, 18.33, 18.78, 18.78, 18.78, 18.78, 18.33, 17.43, 16.09, 14.75, 13.86, 13.86, 14.75, 15.2, 16.09, 16.99, 17.88, 17.88, 17.88, 18.33, 18.78, 19.67, 20.12, 20.12, 20.12, 20.56, 20.56, 21.01, 21.01, 21.46, 21.9, 22.35, 22.35, 21.9, 21.46, 21.46, 6.26, 6.71, 7.15, 7.15, 7.6, 8.05, 8.49, 8.49, 8.94, 9.39, 9.39, 9.83, 10.28, 10.73, 10.73, 11.18, 11.62, 12.07, 12.07, 12.52, 12.96, 13.41, 13.86, 14.3, 14.75, 15.2, 15.65, 16.09, 16.09, 16.54, 16.99, 16.99, 17.43, 17.43, 17.43, 17.43, 17.43, 17.43, 16.99, 16.99, 16.54, 16.09, 16.09, 16.09, 16.09, 16.09, 16.09, 16.54, 16.54, 16.54, 16.54, 16.54, 16.54, 16.54, 16.99, 16.99, 17.43, 17.88, 18.33, 18.33, 18.33, 18.78, 19.22, 19.22, 19.22, 19.22, 19.67, 19.67, 19.22, 18.78, 17.43, 16.09, 14.75, 13.86, 13.86, 14.3, 15.2, 16.54, 17.43, 17.43, 17.43, 17.88, 18.33, 19.22, 19.67, 20.12, 20.12, 20.12, 20.12, 20.12, 20.12, 21.01, 21.46, 21.46, 21.46, 21.46, 21.01, 21.01, 6.26, 6.71, 7.15, 7.15, 7.6, 8.05, 8.49, 8.49, 8.94, 9.39, 9.39, 9.83, 10.28, 10.73, 10.73, 11.18, 11.62, 12.07, 12.52, 12.52, 12.96, 13.41, 13.86, 14.3, 14.75, 15.2, 15.65, 15.65, 16.09, 16.54, 16.54, 16.99, 16.99, 17.43, 17.43, 16.99, 16.99, 16.99, 16.99, 16.54, 16.54, 16.54, 16.09, 16.09, 16.09, 16.09, 16.09, 16.09, 16.54, 16.54, 16.54, 16.54, 16.54, 16.54, 16.99, 16.99, 17.43, 17.88, 18.33, 18.33, 18.78, 18.78, 19.22, 19.22, 19.22, 19.67, 19.67, 19.67, 19.22, 18.78, 18.33, 16.54, 15.2, 13.86, 13.41, 13.41, 14.3, 15.65, 16.09, 16.54, 16.54, 16.99, 17.43, 18.33, 18.78, 19.22, 20.56, 20.56, 20.12, 20.12, 20.12, 20.56, 21.01, 21.01, 21.01, 21.01, 20.56, 20.56, 6.26, 6.71, 7.15, 7.15, 7.6, 8.05, 8.49, 8.49, 8.94, 9.39, 9.39, 9.83, 10.28, 10.73, 10.73, 11.18, 11.62, 12.07, 12.52, 12.52, 12.96, 13.41, 13.86, 14.3, 14.75, 15.2, 15.65, 15.65, 16.09, 16.54, 16.54, 16.99, 16.99, 16.99, 16.99, 16.99, 16.99, 16.99, 16.54, 16.54, 16.54, 16.54, 16.09, 16.09, 16.09, 16.09, 16.09, 16.09, 16.09, 16.09, 16.54, 16.54, 16.54, 16.54, 16.99, 16.99, 17.43, 17.43, 17.88, 18.33, 18.33, 18.33, 18.78, 18.78, 19.22, 19.22, 19.22, 19.22, 19.22, 19.22, 18.78, 17.43, 15.65, 13.86, 13.41, 13.41, 14.3, 14.75, 15.2, 15.2, 15.65, 16.09, 16.99, 17.88, 18.78, 19.22, 19.67, 20.12, 20.12, 20.12, 19.67, 20.12, 20.56, 20.56, 20.56, 20.56, 20.12, 20.12, 6.26, 6.71, 6.71, 7.15, 7.6, 8.05, 8.49, 8.49, 8.94, 9.39, 9.39, 9.83, 10.28, 10.28, 10.73, 11.18, 11.62, 12.07, 12.52, 12.96, 12.96, 13.41, 13.86, 14.3, 14.75, 15.2, 15.65, 15.65, 16.09, 16.09, 16.54, 16.54, 16.54, 16.99, 16.99, 16.99, 16.99, 16.99, 16.54, 16.54, 16.54, 16.09, 16.09, 16.09, 16.09, 16.09, 16.09, 16.09, 16.54, 16.09, 16.09, 16.09, 16.54, 16.54, 16.54, 16.99, 16.99, 16.99, 17.43, 17.43, 17.88, 17.88, 18.33, 18.33, 18.33, 18.33, 18.33, 18.78, 18.78, 19.22, 18.78, 17.88, 16.09, 13.86, 13.41, 13.86, 14.75, 15.65, 15.65, 15.2, 16.09, 16.99, 17.43, 17.88, 18.33, 18.78, 19.22, 19.67, 20.12, 20.12, 20.12, 19.67, 20.12, 20.12, 20.12, 20.12, 20.12, 20.12, 6.26, 6.71, 6.71, 7.15, 7.6, 8.05, 8.05, 8.49, 8.94, 8.94, 9.39, 9.83, 10.28, 10.28, 10.73, 11.18, 11.62, 12.07, 12.07, 12.52, 12.96, 13.41, 13.86, 14.3, 14.75, 15.2, 15.65, 15.65, 16.09, 16.09, 16.54, 16.54, 16.54, 16.54, 16.99, 16.99, 16.99, 16.99, 16.54, 16.54, 16.54, 16.54, 16.09, 16.09, 16.54, 16.54, 16.09, 16.54, 16.54, 16.54, 16.54, 16.54, 16.54, 16.54, 16.54, 16.54, 16.99, 16.99, 17.43, 17.43, 17.43, 17.88, 17.88, 17.88, 17.88, 17.88, 18.33, 18.33, 18.78, 18.78, 19.22, 18.78, 16.54, 13.86, 13.41, 14.3, 15.65, 16.09, 16.09, 16.09, 16.09, 16.99, 17.43, 18.33, 18.33, 18.78, 19.22, 19.67, 20.12, 20.12, 20.12, 19.67, 20.12, 20.12, 20.12, 20.12, 19.67, 19.67, 6.26, 6.26, 6.71, 7.15, 7.6, 8.05, 8.05, 8.49, 8.94, 8.94, 9.39, 9.83, 9.83, 10.28, 10.73, 11.18, 11.18, 11.62, 12.07, 12.52, 12.96, 13.41, 13.86, 14.3, 14.75, 15.2, 15.2, 15.65, 16.09, 16.09, 16.09, 16.54, 16.54, 16.54, 16.54, 16.54, 16.54, 16.54, 16.54, 16.54, 16.54, 16.09, 16.09, 16.09, 16.09, 16.09, 16.54, 16.54, 16.54, 16.54, 16.54, 16.54, 16.54, 16.54, 16.54, 16.54, 16.54, 16.99, 16.99, 17.43, 17.43, 17.43, 17.88, 17.88, 17.88, 17.88, 17.88, 17.88, 18.33, 18.33, 18.33, 18.33, 17.43, 14.3, 13.86, 14.75, 16.54, 16.54, 16.99, 16.99, 16.99, 16.99, 17.43, 17.88, 18.33, 18.78, 19.22, 19.22, 19.67, 20.12, 20.12, 20.12, 20.12, 20.12, 20.12, 20.12, 19.67, 19.67, 6.26, 6.26, 6.71, 7.15, 7.6, 7.6, 8.05, 8.49, 8.94, 8.94, 9.39, 9.39, 9.83, 10.28, 10.73, 10.73, 11.18, 11.62, 12.07, 12.52, 12.96, 13.41, 13.86, 14.3, 14.3, 14.75, 15.2, 15.65, 15.65, 16.09, 16.09, 16.54, 16.54, 16.54, 16.54, 16.54, 16.54, 16.54, 16.54, 16.54, 16.54, 16.09, 16.09, 16.09, 16.09, 16.54, 16.54, 16.54, 16.54, 16.54, 16.54, 16.54, 16.54, 16.54, 16.54, 16.54, 16.54, 16.99, 16.99, 16.99, 16.99, 17.43, 17.43, 17.43, 17.88, 17.88, 17.88, 17.88, 17.88, 17.88, 17.88, 17.43, 16.09, 13.86, 15.2, 15.65, 16.09, 16.54, 16.99, 17.43, 17.88, 17.43, 17.43, 17.43, 17.88, 18.33, 18.78, 19.22, 19.22, 19.67, 20.12, 20.12, 20.12, 20.12, 20.12, 20.12, 19.67, 19.67, 5.81, 5.81, 6.26, 7.15, 7.6, 7.6, 8.05, 8.49, 8.49, 8.94, 8.94, 9.39, 9.83, 10.28, 10.28, 10.73, 11.18, 11.62, 12.07, 12.07, 12.52, 12.96, 13.41, 13.86, 14.3, 14.75, 15.2, 15.2, 15.65, 16.09, 16.09, 16.09, 16.09, 16.09, 16.09, 16.54, 16.54, 16.54, 16.54, 16.54, 16.54, 16.09, 16.09, 16.09, 16.09, 16.09, 16.09, 16.09, 16.09, 16.09, 16.54, 16.54, 16.54, 16.54, 16.54, 16.54, 16.54, 16.54, 16.54, 16.99, 16.99, 16.99, 16.99, 16.99, 17.43, 17.43, 17.43, 17.88, 17.88, 17.88, 17.88, 17.43, 13.41, 14.3, 15.65, 15.65, 15.65, 16.09, 16.99, 17.88, 18.33, 18.33, 17.88, 17.43, 17.88, 18.33, 18.78, 19.22, 19.22, 19.22, 20.12, 20.12, 20.12, 20.12, 20.12, 19.67, 19.67, 19.67, 5.81, 5.81, 6.26, 6.71, 7.15, 7.6, 8.05, 8.49, 8.49, 8.94, 8.94, 9.39, 9.39, 9.83, 10.28, 10.73, 10.73, 11.18, 11.62, 12.07, 12.52, 12.96, 13.41, 13.86, 14.3, 14.3, 14.75, 15.2, 15.65, 15.65, 15.65, 16.09, 16.09, 16.09, 16.09, 16.09, 16.09, 16.09, 16.09, 16.09, 16.09, 16.09, 16.09, 16.09, 16.09, 16.09, 16.09, 16.09, 16.09, 16.09, 16.09, 16.09, 16.54, 16.54, 16.54, 16.54, 16.54, 16.54, 16.09, 16.54, 16.54, 16.54, 16.54, 16.99, 16.99, 16.99, 17.43, 17.43, 17.43, 17.88, 17.88, 16.99, 15.2, 14.3, 15.65, 15.2, 15.2, 16.09, 16.99, 17.88, 18.33, 18.33, 18.33, 17.88, 17.88, 18.33, 18.33, 18.78, 19.22, 19.22, 19.67, 19.67, 19.67, 20.12, 20.12, 19.67, 19.67, 19.67, 5.81, 5.81, 6.26, 6.71, 7.15, 7.15, 8.05, 8.05, 8.49, 8.49, 8.94, 9.39, 9.39, 9.83, 10.28, 10.28, 10.73, 11.18, 11.62, 12.07, 12.07, 12.52, 12.96, 13.41, 13.86, 14.3, 14.75, 14.75, 15.2, 15.2, 15.65, 15.65, 15.65, 16.09, 16.09, 16.09, 16.09, 16.09, 16.09, 16.09, 16.09, 16.09, 16.09, 16.09, 16.09, 16.09, 16.09, 16.09, 16.09, 16.09, 16.09, 16.09, 16.09, 16.09, 16.54, 16.54, 16.54, 16.54, 16.54, 16.09, 16.09, 16.54, 16.54, 16.54, 16.54, 16.99, 16.99, 16.99, 16.99, 17.43, 17.88, 17.43, 16.09, 14.75, 14.75, 14.75, 15.2, 16.09, 16.99, 17.43, 17.88, 18.33, 18.33, 17.88, 17.88, 18.33, 18.78, 18.78, 19.22, 19.22, 18.78, 19.22, 19.22, 19.67, 19.67, 19.67, 19.67, 19.67, 5.81, 5.81, 6.26, 6.71, 6.71, 7.15, 7.6, 8.05, 8.49, 8.49, 8.94, 8.94, 9.39, 9.39, 9.83, 10.28, 10.73, 10.73, 11.18, 11.62, 12.07, 12.52, 12.96, 13.41, 13.41, 13.86, 14.3, 14.75, 14.75, 15.2, 15.2, 15.65, 15.65, 15.65, 15.65, 15.65, 15.65, 15.65, 15.65, 16.09, 16.09, 16.09, 16.09, 16.09, 16.09, 16.09, 15.65, 15.65, 15.65, 16.09, 16.09, 16.09, 16.09, 16.09, 16.09, 16.54, 16.54, 16.54, 16.54, 16.54, 16.09, 16.09, 16.54, 16.54, 16.54, 16.54, 16.54, 16.54, 16.54, 16.99, 17.43, 17.43, 16.99, 15.2, 14.3, 13.86, 14.3, 15.65, 16.54, 17.43, 17.88, 17.88, 17.88, 17.88, 17.88, 17.88, 18.33, 18.78, 18.78, 19.22, 19.22, 18.78, 18.78, 18.78, 19.22, 19.22, 19.22, 19.22, 5.81, 5.81, 6.26, 6.71, 6.71, 7.15, 7.6, 7.6, 8.05, 8.49, 8.49, 8.94, 8.94, 9.39, 9.83, 10.28, 10.28, 10.73, 11.18, 11.62, 11.62, 12.07, 12.52, 12.96, 13.41, 13.41, 13.86, 14.3, 14.75, 14.75, 15.2, 14.75, 15.2, 15.2, 15.2, 15.2, 15.2, 15.2, 15.2, 15.2, 15.65, 15.65, 15.65, 15.65, 15.65, 15.65, 15.65, 15.65, 15.65, 15.65, 15.65, 16.09, 16.09, 16.09, 16.09, 16.09, 16.54, 16.54, 16.54, 16.54, 16.54, 16.09, 16.09, 16.09, 16.54, 16.54, 16.54, 16.54, 16.54, 16.54, 16.99, 16.99, 16.99, 16.54, 15.2, 13.86, 12.96, 14.75, 16.54, 16.99, 17.43, 17.43, 17.43, 17.88, 17.88, 18.33, 18.33, 18.33, 18.78, 19.22, 19.22, 19.22, 18.33, 18.33, 18.33, 18.78, 18.78, 18.78, 5.81, 5.81, 6.26, 6.26, 6.71, 7.15, 7.15, 7.6, 7.6, 8.49, 8.49, 8.94, 8.94, 9.39, 9.39, 9.83, 10.28, 10.73, 10.73, 11.18, 11.62, 12.07, 12.07, 12.52, 12.96, 13.41, 13.41, 13.41, 13.86, 14.3, 14.3, 14.3, 14.75, 14.75, 14.75, 15.2, 15.2, 15.2, 15.2, 15.2, 15.2, 15.2, 15.2, 15.2, 15.2, 15.2, 15.65, 15.65, 15.65, 15.65, 15.65, 15.65, 16.09, 16.09, 16.09, 16.09, 16.09, 16.09, 16.09, 16.54, 16.54, 16.09, 16.09, 16.09, 16.09, 16.09, 16.09, 16.54, 16.54, 16.54, 16.54, 16.99, 16.99, 16.99, 16.09, 14.75, 13.86, 14.3, 15.65, 16.99, 16.99, 16.99, 17.43, 17.88, 17.88, 18.33, 18.33, 18.78, 18.78, 19.22, 19.22, 19.22, 18.33, 17.88, 17.88, 17.88, 18.33, 18.33, 5.81, 5.81, 5.81, 6.26, 6.71, 6.71, 7.15, 7.15, 7.6, 8.05, 8.49, 8.49, 8.94, 8.94, 9.39, 9.83, 9.83, 10.28, 10.73, 11.18, 11.18, 11.62, 12.07, 12.52, 12.52, 12.52, 12.96, 13.41, 13.41, 13.86, 13.86, 14.3, 14.3, 14.3, 14.75, 14.75, 14.75, 14.75, 14.75, 14.75, 15.2, 15.2, 15.2, 15.2, 15.2, 15.2, 15.2, 15.2, 15.2, 15.65, 15.65, 15.65, 15.65, 15.65, 16.09, 16.09, 16.09, 16.09, 16.09, 16.09, 16.09, 16.09, 16.09, 16.09, 16.09, 16.09, 16.09, 16.09, 16.54, 16.54, 16.54, 16.54, 16.54, 16.99, 16.54, 15.65, 15.2, 14.75, 14.75, 15.65, 16.54, 16.99, 16.99, 17.43, 17.88, 18.33, 18.78, 18.78, 18.78, 19.22, 19.22, 19.22, 19.22, 18.33, 17.88, 17.88, 17.88, 17.88, 5.81, 5.81, 5.81, 6.26, 6.26, 6.71, 6.71, 7.15, 7.6, 7.6, 8.05, 8.49, 8.49, 8.94, 8.94, 9.39, 9.83, 10.28, 10.28, 10.73, 11.18, 11.62, 11.62, 11.62, 12.07, 12.52, 12.52, 12.96, 12.96, 13.41, 13.86, 13.86, 13.86, 14.3, 14.3, 14.3, 14.3, 14.75, 14.75, 14.75, 14.75, 14.75, 14.75, 14.75, 14.75, 14.75, 14.75, 15.2, 15.2, 15.2, 15.2, 15.2, 15.65, 15.65, 15.65, 15.65, 15.65, 15.65, 15.65, 16.09, 16.09, 16.09, 16.09, 16.09, 16.09, 16.09, 15.65, 15.65, 16.09, 16.09, 16.09, 16.09, 16.09, 16.09, 16.54, 16.09, 16.09, 15.65, 14.75, 14.75, 15.65, 16.54, 16.99, 17.43, 17.88, 17.88, 18.33, 18.78, 19.22, 19.22, 19.22, 19.22, 19.22, 18.78, 18.33, 17.88, 17.88, 17.88, 5.36, 5.36, 5.81, 5.81, 6.26, 6.26, 6.71, 6.71, 7.15, 7.6, 7.6, 8.05, 8.49, 8.49, 8.94, 8.94, 9.39, 9.83, 10.28, 10.73, 10.73, 10.73, 11.18, 11.62, 12.07, 12.07, 12.52, 12.52, 12.96, 12.96, 13.41, 13.41, 13.86, 13.86, 13.86, 14.3, 14.3, 14.3, 14.3, 14.3, 14.3, 14.75, 14.75, 14.75, 14.75, 14.75, 14.75, 14.75, 14.75, 15.2, 15.2, 15.2, 15.2, 15.65, 15.65, 15.65, 15.65, 15.65, 15.65, 15.65, 15.65, 16.09, 16.09, 16.09, 16.09, 16.09, 16.09, 15.65, 15.65, 15.65, 16.09, 16.09, 16.09, 15.65, 15.65, 15.65, 16.09, 16.54, 15.65, 14.3, 14.75, 15.65, 16.54, 16.99, 17.43, 17.88, 18.33, 18.78, 18.78, 19.22, 19.22, 19.22, 19.22, 19.22, 18.78, 18.33, 18.33, 18.33, 5.36, 5.36, 5.36, 5.81, 5.81, 6.26, 6.26, 6.71, 6.71, 7.15, 7.6, 7.6, 8.05, 8.49, 8.49, 8.94, 9.39, 9.39, 9.83, 9.83, 10.28, 10.73, 11.18, 11.18, 11.62, 12.07, 12.07, 12.07, 12.52, 12.96, 12.96, 13.41, 13.41, 13.41, 13.86, 13.86, 13.86, 13.86, 13.86, 14.3, 14.3, 14.3, 14.3, 14.3, 14.3, 14.3, 14.3, 14.75, 14.75, 14.75, 14.75, 14.75, 14.75, 15.2, 15.2, 15.2, 15.65, 15.65, 15.65, 15.65, 15.65, 15.65, 15.65, 15.65, 16.09, 16.09, 16.09, 16.09, 15.65, 15.65, 16.09, 16.09, 16.54, 16.09, 15.2, 15.2, 16.09, 16.09, 16.09, 15.2, 14.75, 15.2, 16.09, 16.54, 16.99, 17.43, 17.88, 18.33, 18.78, 18.78, 19.22, 19.22, 19.22, 19.22, 18.78, 18.78, 18.78, 18.78, 4.92, 4.92, 5.36, 5.36, 5.81, 5.81, 6.26, 6.26, 6.71, 7.15, 7.15, 7.6, 7.6, 8.05, 8.49, 8.49, 8.94, 8.94, 9.39, 9.83, 10.28, 10.28, 10.73, 11.18, 11.18, 11.62, 11.62, 12.07, 12.07, 12.52, 12.52, 12.96, 12.96, 13.41, 13.41, 13.41, 13.41, 13.86, 13.86, 13.86, 13.86, 13.86, 14.3, 14.3, 14.3, 14.3, 14.3, 14.3, 14.3, 14.75, 14.75, 14.75, 14.75, 14.75, 14.75, 15.2, 15.2, 15.2, 15.2, 15.2, 15.2, 15.65, 15.65, 15.65, 15.65, 15.65, 16.09, 16.09, 16.09, 16.09, 16.09, 16.09, 16.54, 16.09, 15.65, 15.2, 15.65, 16.09, 15.65, 15.2, 14.75, 14.75, 15.65, 16.09, 16.54, 16.99, 17.43, 17.88, 18.33, 18.33, 18.78, 19.22, 19.22, 19.22, 19.22, 18.78, 18.78, 18.78, 4.92, 4.92, 4.92, 5.36, 5.36, 5.81, 5.81, 6.26, 6.26, 6.71, 7.15, 7.15, 7.6, 7.6, 8.05, 8.49, 8.49, 8.94, 9.39, 9.39, 9.83, 10.28, 10.28, 10.73, 11.18, 11.18, 11.62, 11.62, 11.62, 12.07, 12.07, 12.52, 12.52, 12.96, 12.96, 12.96, 13.41, 13.41, 13.41, 13.41, 13.86, 13.86, 13.86, 13.86, 13.86, 13.86, 13.86, 14.3, 14.3, 14.3, 14.75, 14.75, 14.75, 14.75, 14.75, 14.75, 14.75, 14.75, 15.2, 15.2, 15.2, 15.2, 15.2, 15.65, 15.65, 15.65, 15.65, 15.65, 16.09, 16.09, 16.09, 16.09, 16.09, 16.09, 15.65, 15.2, 15.2, 15.65, 15.65, 15.2, 14.75, 14.75, 15.2, 15.65, 16.09, 16.54, 16.99, 16.99, 17.43, 17.88, 18.33, 18.78, 19.22, 19.22, 19.22, 19.22, 18.78, 18.78, 4.47, 4.47, 4.92, 4.92, 5.36, 5.36, 5.81, 6.26, 6.26, 6.71, 6.71, 7.15, 7.15, 7.6, 7.6, 8.05, 8.49, 8.94, 8.94, 9.39, 9.39, 9.83, 10.28, 10.28, 10.73, 10.73, 11.18, 11.18, 11.62, 11.62, 12.07, 12.07, 12.52, 12.52, 12.52, 12.96, 12.96, 12.96, 12.96, 13.41, 13.41, 13.41, 13.41, 13.41, 13.86, 13.86, 13.86, 13.86, 13.86, 14.3, 14.3, 14.3, 14.75, 14.75, 14.75, 14.75, 14.75, 14.75, 14.75, 14.75, 15.2, 15.2, 15.2, 15.2, 15.2, 15.65, 15.65, 15.65, 16.09, 16.09, 16.09, 16.09, 16.09, 16.09, 15.65, 15.2, 14.75, 15.2, 15.2, 15.2, 15.2, 14.75, 15.2, 15.2, 15.65, 16.09, 16.54, 16.54, 16.99, 17.88, 18.33, 18.33, 18.78, 18.78, 18.78, 18.78, 18.78, 18.78, 4.47, 4.47, 4.47, 4.92, 4.92, 5.36, 5.81, 5.81, 6.26, 6.26, 6.71, 6.71, 7.15, 7.15, 7.6, 8.05, 8.49, 8.49, 8.94, 8.94, 9.39, 9.83, 9.83, 10.28, 10.28, 10.73, 10.73, 11.18, 11.18, 11.18, 11.62, 11.62, 12.07, 12.07, 12.52, 12.52, 12.52, 12.96, 12.96, 12.96, 12.96, 12.96, 12.96, 13.41, 13.41, 13.41, 13.41, 13.41, 13.86, 13.86, 13.86, 14.3, 14.3, 14.3, 14.3, 14.3, 14.3, 14.3, 14.75, 14.75, 14.75, 15.2, 15.2, 15.2, 15.2, 15.2, 15.65, 15.65, 15.65, 16.09, 16.09, 16.09, 16.09, 15.65, 15.65, 15.2, 14.75, 14.75, 14.75, 14.75, 14.75, 14.75, 14.75, 15.2, 15.2, 15.65, 16.09, 16.09, 16.99, 17.43, 17.88, 18.33, 18.33, 18.33, 18.78, 18.78, 18.78, 18.78, 4.02, 4.02, 4.47, 4.92, 4.92, 5.36, 5.36, 5.81, 5.81, 6.26, 6.71, 6.71, 7.15, 7.15, 7.6, 7.6, 8.05, 8.49, 8.49, 8.94, 8.94, 9.39, 9.83, 9.83, 10.28, 10.28, 10.28, 10.73, 10.73, 11.18, 11.18, 11.62, 11.62, 11.62, 12.07, 12.07, 12.52, 12.52, 12.52, 12.52, 12.52, 12.96, 12.96, 12.96, 12.96, 13.41, 13.41, 13.41, 13.41, 13.86, 13.86, 13.86, 14.3, 14.3, 14.3, 14.3, 14.3, 14.3, 14.3, 14.75, 14.75, 14.75, 15.2, 15.2, 15.2, 15.2, 15.2, 15.65, 15.65, 16.09, 16.09, 16.09, 16.09, 15.65, 15.2, 14.75, 14.75, 14.3, 14.3, 14.3, 14.3, 14.3, 14.3, 14.75, 14.75, 15.2, 15.65, 16.09, 16.54, 16.99, 17.43, 17.88, 17.88, 18.33, 18.33, 18.78, 18.78, 18.78, 4.02, 4.02, 4.47, 4.47, 4.92, 4.92, 5.36, 5.81, 5.81, 6.26, 6.26, 6.71, 6.71, 7.15, 7.15, 7.6, 8.05, 8.49, 8.49, 8.94, 8.94, 8.94, 9.39, 9.39, 9.83, 9.83, 10.28, 10.28, 10.28, 10.73, 10.73, 11.18, 11.18, 11.62, 11.62, 11.62, 12.07, 12.07, 12.07, 12.52, 12.52, 12.52, 12.52, 12.52, 12.52, 12.96, 12.96, 13.41, 13.41, 13.41, 13.41, 13.86, 13.86, 13.86, 13.86, 14.3, 14.3, 14.3, 14.3, 14.75, 14.75, 14.75, 14.75, 15.2, 15.2, 15.2, 15.2, 15.2, 15.65, 15.65, 16.09, 16.09, 16.54, 16.09, 15.2, 14.75, 14.75, 14.3, 14.3, 14.3, 14.3, 13.86, 13.86, 13.86, 14.3, 14.75, 14.75, 15.65, 16.54, 16.99, 17.43, 17.43, 17.88, 17.88, 18.33, 18.78, 18.78, 18.78, 4.02, 4.02, 4.47, 4.47, 4.92, 4.92, 5.36, 5.36, 5.81, 6.26, 6.26, 6.71, 6.71, 7.15, 7.15, 7.6, 7.6, 8.05, 8.49, 8.49, 8.94, 8.94, 8.94, 9.39, 9.39, 9.83, 9.83, 9.83, 10.28, 10.28, 10.28, 10.73, 10.73, 11.18, 11.18, 11.62, 11.62, 11.62, 12.07, 12.07, 12.07, 12.07, 12.07, 12.07, 12.52, 12.52, 12.96, 12.96, 12.96, 13.41, 13.41, 13.41, 13.86, 13.86, 13.86, 13.86, 13.86, 14.3, 14.3, 14.3, 14.75, 14.75, 14.75, 14.75, 14.75, 15.2, 15.2, 15.2, 15.65, 15.65, 16.09, 16.09, 16.54, 16.54, 15.65, 14.75, 13.86, 14.3, 14.3, 13.86, 13.86, 13.41, 13.41, 13.41, 13.86, 14.3, 14.75, 15.65, 16.54, 16.99, 17.43, 17.43, 17.88, 17.88, 18.33, 18.78, 19.22, 18.78, 4.02, 4.02, 4.47, 4.47, 4.92, 4.92, 5.36, 5.36, 5.81, 6.26, 6.26, 6.71, 6.71, 6.71, 7.15, 7.15, 7.6, 7.6, 8.05, 8.49, 8.49, 8.49, 8.94, 8.94, 9.39, 9.39, 9.39, 9.83, 9.83, 9.83, 10.28, 10.28, 10.73, 10.73, 10.73, 11.18, 11.18, 11.62, 11.62, 11.62, 11.62, 12.07, 12.07, 12.07, 12.07, 12.52, 12.52, 12.96, 12.96, 12.96, 12.96, 13.41, 13.41, 13.41, 13.41, 13.86, 13.86, 13.86, 14.3, 14.3, 14.3, 14.75, 14.75, 14.75, 14.75, 14.75, 15.2, 15.2, 15.2, 15.65, 15.65, 16.09, 16.54, 16.54, 16.54, 15.65, 14.3, 13.86, 13.86, 13.86, 13.86, 13.41, 12.96, 12.96, 12.96, 13.86, 14.3, 15.2, 16.54, 16.99, 17.43, 17.43, 17.88, 18.33, 18.78, 19.22, 19.22, 19.22, 4.02, 4.02, 4.47, 4.47, 4.92, 4.92, 5.36, 5.36, 5.81, 5.81, 6.26, 6.26, 6.71, 6.71, 7.15, 7.15, 7.15, 7.6, 7.6, 8.05, 8.05, 8.49, 8.49, 8.94, 8.94, 8.94, 8.94, 9.39, 9.39, 9.39, 9.83, 9.83, 10.28, 10.28, 10.73, 10.73, 11.18, 11.18, 11.18, 11.18, 11.62, 11.62, 11.62, 11.62, 12.07, 12.07, 12.07, 12.52, 12.52, 12.96, 12.96, 12.96, 12.96, 13.41, 13.41, 13.41, 13.86, 13.86, 14.3, 14.3, 14.3, 14.3, 14.3, 14.3, 14.75, 14.75, 14.75, 15.2, 15.2, 15.2, 15.65, 15.65, 16.09, 16.54, 16.54, 16.54, 15.65, 14.3, 13.86, 14.3, 14.3, 13.41, 12.52, 12.07, 12.52, 13.41, 14.3, 15.65, 16.54, 16.99, 17.43, 17.43, 17.88, 18.33, 19.22, 19.22, 19.22, 19.22, 4.02, 4.02, 4.47, 4.47, 4.92, 4.92, 5.36, 5.36, 5.81, 5.81, 5.81, 6.26, 6.26, 6.71, 6.71, 7.15, 7.15, 7.15, 7.6, 7.6, 8.05, 8.05, 8.05, 8.49, 8.49, 8.49, 8.94, 8.94, 8.94, 9.39, 9.39, 9.83, 9.83, 9.83, 10.28, 10.28, 10.73, 10.73, 10.73, 11.18, 11.18, 11.18, 11.62, 11.62, 11.62, 12.07, 12.07, 12.07, 12.52, 12.52, 12.52, 12.96, 12.96, 12.96, 12.96, 13.41, 13.86, 13.86, 13.86, 13.86, 14.3, 14.3, 14.3, 14.3, 14.3, 14.75, 14.75, 14.75, 15.2, 15.2, 15.2, 15.65, 15.65, 16.09, 16.09, 16.54, 16.54, 15.2, 14.3, 14.3, 14.3, 13.86, 12.52, 11.62, 11.62, 12.52, 14.3, 15.65, 16.54, 16.99, 16.99, 17.43, 17.88, 18.78, 19.22, 19.22, 19.22, 19.22, 4.02, 4.02, 4.47, 4.47, 4.92, 4.92, 4.92, 5.36, 5.36, 5.81, 5.81, 5.81, 6.26, 6.26, 6.71, 6.71, 6.71, 7.15, 7.15, 7.6, 7.6, 7.6, 8.05, 8.05, 8.05, 8.49, 8.49, 8.49, 8.94, 8.94, 8.94, 9.39, 9.39, 9.83, 9.83, 10.28, 10.28, 10.28, 10.73, 10.73, 10.73, 11.18, 11.18, 11.18, 11.62, 11.62, 12.07, 12.07, 12.07, 12.52, 12.52, 12.52, 12.52, 12.96, 12.96, 13.41, 13.41, 13.86, 13.86, 13.86, 13.86, 13.86, 14.3, 14.3, 14.3, 14.3, 14.75, 14.75, 14.75, 15.2, 15.2, 15.2, 15.65, 15.65, 16.09, 16.09, 16.54, 16.09, 15.2, 14.3, 13.86, 13.41, 12.52, 11.18, 10.73, 12.07, 13.86, 15.65, 16.54, 16.54, 16.99, 17.88, 18.33, 18.78, 18.78, 18.78, 18.78, 18.78, 4.02, 4.02, 4.02, 4.47, 4.47, 4.92, 4.92, 4.92, 5.36, 5.36, 5.81, 5.81, 5.81, 6.26, 6.26, 6.26, 6.71, 6.71, 6.71, 7.15, 7.15, 7.6, 7.6, 7.6, 7.6, 8.05, 8.05, 8.05, 8.49, 8.49, 8.94, 8.94, 9.39, 9.39, 9.39, 9.83, 9.83, 10.28, 10.28, 10.28, 10.73, 10.73, 10.73, 11.18, 11.18, 11.62, 11.62, 12.07, 12.07, 12.07, 12.07, 12.52, 12.52, 12.52, 12.96, 13.41, 13.41, 13.41, 13.86, 13.86, 13.86, 13.86, 13.86, 13.86, 14.3, 14.3, 14.3, 14.75, 14.75, 14.75, 15.2, 15.2, 15.2, 15.2, 15.65, 15.65, 16.09, 16.09, 16.09, 15.2, 14.3, 12.96, 12.07, 11.18, 10.73, 11.62, 13.41, 15.2, 16.09, 16.09, 16.99, 17.43, 17.88, 18.33, 18.78, 18.78, 18.78, 18.78, 4.02, 4.02, 4.02, 4.47, 4.47, 4.47, 4.92, 4.92, 4.92, 5.36, 5.36, 5.36, 5.81, 5.81, 6.26, 6.26, 6.26, 6.26, 6.71, 6.71, 7.15, 7.15, 7.15, 7.15, 7.6, 7.6, 7.6, 8.05, 8.05, 8.49, 8.49, 8.49, 8.94, 8.94, 9.39, 9.39, 9.39, 9.83, 9.83, 10.28, 10.28, 10.73, 10.73, 10.73, 11.18, 11.18, 11.62, 11.62, 11.62, 12.07, 12.07, 12.07, 12.52, 12.52, 12.96, 12.96, 13.41, 13.41, 13.41, 13.41, 13.41, 13.86, 13.86, 13.86, 13.86, 14.3, 14.3, 14.75, 14.75, 14.75, 14.75, 14.75, 15.2, 15.2, 15.2, 15.65, 15.65, 16.09, 15.65, 15.65, 14.75, 13.41, 12.07, 10.73, 10.73, 11.62, 13.41, 14.75, 15.65, 16.54, 16.99, 17.43, 17.88, 17.88, 18.33, 18.33, 18.33, 18.33, 3.58, 3.58, 4.02, 4.02, 4.02, 4.47, 4.47, 4.47, 4.92, 4.92, 4.92, 5.36, 5.36, 5.36, 5.81, 5.81, 5.81, 6.26, 6.26, 6.26, 6.26, 6.71, 6.71, 7.15, 7.15, 7.15, 7.6, 7.6, 7.6, 8.05, 8.05, 8.49, 8.49, 8.94, 8.94, 8.94, 9.39, 9.39, 9.83, 9.83, 10.28, 10.28, 10.73, 10.73, 10.73, 11.18, 11.18, 11.62, 11.62, 11.62, 12.07, 12.07, 12.07, 12.52, 12.96, 12.96, 12.96, 13.41, 13.41, 13.41, 13.41, 13.41, 13.41, 13.86, 13.86, 13.86, 14.3, 14.3, 14.75, 14.75, 14.75, 14.75, 14.75, 14.75, 15.2, 15.2, 15.65, 15.65, 15.65, 15.65, 15.2, 14.3, 12.52, 10.28, 10.28, 12.07, 13.86, 14.75, 15.65, 16.54, 16.54, 16.99, 17.43, 17.43, 17.88, 17.88, 17.88, 17.88, 3.58, 3.58, 3.58, 3.58, 4.02, 4.02, 4.02, 4.47, 4.47, 4.47, 4.92, 4.92, 4.92, 5.36, 5.36, 5.36, 5.81, 5.81, 5.81, 5.81, 6.26, 6.26, 6.71, 6.71, 6.71, 7.15, 7.15, 7.15, 7.6, 7.6, 8.05, 8.05, 8.49, 8.49, 8.49, 8.94, 8.94, 9.39, 9.39, 9.83, 9.83, 10.28, 10.28, 10.73, 10.73, 11.18, 11.18, 11.18, 11.62, 11.62, 11.62, 12.07, 12.07, 12.52, 12.52, 12.96, 12.96, 12.96, 12.96, 12.96, 13.41, 13.41, 13.41, 13.41, 13.86, 13.86, 13.86, 14.3, 14.3, 14.3, 14.3, 14.75, 14.75, 14.75, 14.75, 15.2, 15.2, 15.65, 15.65, 15.65, 15.2, 14.75, 13.41, 11.18, 10.28, 12.07, 14.75, 15.2, 15.65, 16.09, 16.54, 16.54, 16.99, 16.99, 17.43, 17.43, 17.43, 17.43, 3.58, 3.13, 3.58, 3.58, 3.58, 4.02, 4.02, 4.02, 4.02, 4.47, 4.47, 4.47, 4.92, 4.92, 4.92, 5.36, 5.36, 5.36, 5.36, 5.81, 5.81, 6.26, 6.26, 6.26, 6.71, 6.71, 6.71, 7.15, 7.15, 7.6, 7.6, 8.05, 8.05, 8.49, 8.49, 8.49, 8.94, 8.94, 9.39, 9.39, 9.83, 9.83, 10.28, 10.28, 10.73, 10.73, 11.18, 11.18, 11.18, 11.62, 11.62, 11.62, 12.07, 12.52, 12.52, 12.52, 12.52, 12.96, 12.96, 12.96, 12.96, 12.96, 13.41, 13.41, 13.41, 13.86, 13.86, 13.86, 13.86, 13.86, 14.3, 14.3, 14.75, 14.75, 14.75, 15.2, 15.2, 15.2, 15.65, 15.65, 15.65, 15.2, 14.3, 12.52, 10.73, 13.41, 14.3, 15.2, 15.65, 15.65, 16.09, 16.54, 16.54, 16.99, 16.99, 16.99, 16.99, 16.99, 3.13, 3.13, 3.13, 3.13, 3.58, 3.58, 3.58, 4.02, 4.02, 4.02, 4.02, 4.47, 4.47, 4.47, 4.92, 4.92, 4.92, 5.36, 5.36, 5.36, 5.36, 5.81, 5.81, 6.26, 6.26, 6.26, 6.71, 6.71, 7.15, 7.15, 7.6, 7.6, 8.05, 8.05, 8.49, 8.49, 8.49, 8.94, 8.94, 9.39, 9.39, 9.83, 9.83, 10.28, 10.28, 10.73, 10.73, 11.18, 11.18, 11.18, 11.62, 11.62, 11.62, 12.07, 12.07, 12.52, 12.52, 12.52, 12.52, 12.52, 12.96, 12.96, 12.96, 13.41, 13.41, 13.41, 13.41, 13.41, 13.41, 13.86, 13.86, 13.86, 14.3, 14.75, 15.2, 15.2, 15.2, 15.2, 15.65, 15.65, 15.65, 15.65, 15.2, 13.86, 12.07, 12.52, 13.86, 14.75, 15.65, 15.65, 15.65, 16.09, 16.09, 16.54, 16.99, 16.99, 16.99, 16.99, 2.68, 2.68, 3.13, 3.13, 3.13, 3.13, 3.58, 3.58, 3.58, 4.02, 4.02, 4.02, 4.02, 4.47, 4.47, 4.47, 4.92, 4.92, 4.92, 4.92, 5.36, 5.36, 5.81, 5.81, 5.81, 6.26, 6.26, 6.71, 6.71, 7.15, 7.15, 7.6, 7.6, 8.05, 8.05, 8.49, 8.49, 8.49, 8.94, 8.94, 9.39, 9.39, 9.83, 9.83, 10.28, 10.28, 10.73, 10.73, 11.18, 11.18, 11.18, 11.62, 11.62, 12.07, 12.07, 12.07, 12.07, 12.07, 12.52, 12.52, 12.52, 12.96, 12.96, 12.96, 13.41, 13.41, 13.41, 13.41, 13.41, 13.41, 13.41, 13.41, 13.86, 13.86, 14.75, 14.75, 15.2, 15.2, 15.2, 15.65, 15.65, 15.65, 15.2, 12.96, 12.07, 12.07, 13.41, 14.75, 15.2, 15.65, 15.2, 15.65, 16.09, 16.54, 16.54, 16.99, 16.99, 16.99, 2.68, 2.68, 2.68, 2.68, 3.13, 3.13, 3.13, 3.13, 3.58, 3.58, 3.58, 4.02, 4.02, 4.02, 4.02, 4.47, 4.47, 4.47, 4.92, 4.92, 4.92, 5.36, 5.36, 5.81, 5.81, 5.81, 6.26, 6.26, 6.71, 6.71, 7.15, 7.15, 7.6, 7.6, 8.05, 8.05, 8.49, 8.49, 8.94, 8.94, 9.39, 9.39, 9.83, 9.83, 10.28, 10.28, 10.28, 10.73, 10.73, 11.18, 11.18, 11.18, 11.62, 11.62, 11.62, 11.62, 12.07, 12.07, 12.07, 12.52, 12.52, 12.52, 12.96, 12.96, 12.96, 12.96, 13.41, 13.41, 13.41, 13.41, 13.41, 13.41, 13.41, 13.86, 13.86, 14.75, 14.75, 14.75, 15.2, 15.2, 15.2, 15.2, 14.75, 13.41, 12.07, 12.07, 12.96, 14.3, 14.75, 15.2, 15.2, 15.2, 15.65, 16.09, 16.54, 16.54, 16.54, 16.54, 2.68, 2.68, 2.68, 2.68, 2.68, 3.13, 3.13, 3.13, 3.13, 3.58, 3.58, 3.58, 3.58, 4.02, 4.02, 4.02, 4.47, 4.47, 4.47, 4.92, 4.92, 4.92, 4.92, 5.36, 5.81, 5.81, 6.26, 6.26, 6.71, 6.71, 7.15, 7.15, 7.6, 7.6, 7.6, 8.05, 8.05, 8.49, 8.49, 8.94, 8.94, 9.39, 9.39, 9.83, 9.83, 10.28, 10.28, 10.73, 10.73, 10.73, 11.18, 11.18, 11.18, 11.62, 11.62, 11.62, 11.62, 12.07, 12.07, 12.07, 12.52, 12.52, 12.52, 12.96, 12.96, 12.96, 12.96, 12.96, 13.41, 13.41, 13.41, 13.41, 13.41, 13.86, 13.86, 14.3, 14.3, 14.75, 14.75, 14.75, 15.2, 15.2, 14.75, 12.96, 12.07, 12.07, 12.96, 14.3, 14.75, 14.75, 14.75, 14.75, 15.2, 15.65, 16.09, 16.54, 16.54, 16.54, 2.24, 2.24, 2.68, 2.68, 2.68, 2.68, 3.13, 3.13, 3.13, 3.13, 3.58, 3.58, 3.58, 3.58, 4.02, 4.02, 4.02, 4.02, 4.47, 4.47, 4.47, 4.92, 4.92, 5.36, 5.36, 5.81, 5.81, 6.26, 6.26, 6.71, 6.71, 7.15, 7.15, 7.6, 7.6, 8.05, 8.05, 8.49, 8.49, 8.94, 8.94, 9.39, 9.39, 9.39, 9.83, 9.83, 10.28, 10.28, 10.28, 10.73, 10.73, 10.73, 11.18, 11.18, 11.18, 11.62, 11.62, 11.62, 12.07, 12.07, 12.07, 12.52, 12.52, 12.52, 12.52, 12.52, 12.96, 12.96, 12.96, 12.96, 13.41, 13.41, 13.41, 13.41, 13.86, 14.3, 14.3, 14.75, 14.75, 14.75, 15.2, 15.2, 15.2, 13.86, 12.07, 12.07, 12.96, 14.3, 14.3, 14.3, 14.3, 14.75, 14.75, 15.2, 15.65, 16.09, 16.09, 16.09, 2.24, 2.24, 2.24, 2.68, 2.68, 2.68, 2.68, 2.68, 3.13, 3.13, 3.13, 3.58, 3.58, 3.58, 3.58, 4.02, 4.02, 4.02, 4.02, 4.47, 4.47, 4.92, 4.92, 5.36, 5.36, 5.81, 5.81, 6.26, 6.26, 6.71, 6.71, 7.15, 7.15, 7.6, 7.6, 7.6, 8.05, 8.05, 8.49, 8.49, 8.94, 8.94, 9.39, 9.39, 9.83, 9.83, 9.83, 10.28, 10.28, 10.28, 10.28, 10.73, 10.73, 11.18, 11.18, 11.18, 11.62, 11.62, 11.62, 12.07, 12.07, 12.07, 12.52, 12.52, 12.52, 12.52, 12.52, 12.52, 12.96, 12.96, 12.96, 13.41, 13.41, 13.41, 13.86, 13.86, 14.3, 14.75, 14.75, 14.75, 15.2, 15.2, 15.2, 14.75, 12.96, 12.07, 12.96, 13.86, 13.86, 13.86, 14.3, 14.3, 14.3, 14.75, 15.2, 15.65, 15.65, 15.65, 2.24, 2.24, 2.24, 2.24, 2.68, 2.68, 2.68, 2.68, 3.13, 3.13, 3.13, 3.13, 3.58, 3.58, 3.58, 3.58, 4.02, 4.02, 4.02, 4.47, 4.47, 4.92, 4.92, 5.36, 5.36, 5.81, 5.81, 6.26, 6.26, 6.71, 6.71, 7.15, 7.15, 7.15, 7.6, 7.6, 8.05, 8.05, 8.49, 8.49, 8.94, 8.94, 8.94, 9.39, 9.39, 9.39, 9.83, 9.83, 9.83, 10.28, 10.28, 10.28, 10.73, 10.73, 11.18, 11.18, 11.18, 11.62, 11.62, 11.62, 12.07, 12.07, 12.07, 12.07, 12.07, 12.52, 12.52, 12.52, 12.52, 12.96, 12.96, 12.96, 13.41, 13.41, 13.86, 13.86, 13.86, 14.3, 14.75, 14.75, 15.2, 15.2, 15.2, 15.2, 14.3, 12.52, 12.52, 13.41, 13.41, 13.41, 13.86, 14.3, 14.3, 14.3, 14.75, 15.2, 15.2, 15.2, 2.24, 2.24, 2.24, 2.24, 2.24, 2.68, 2.68, 2.68, 2.68, 3.13, 3.13, 3.13, 3.13, 3.58, 3.58, 3.58, 4.02, 4.02, 4.02, 4.47, 4.47, 4.47, 4.92, 4.92, 5.36, 5.81, 5.81, 6.26, 6.26, 6.71, 6.71, 6.71, 7.15, 7.15, 7.6, 7.6, 8.05, 8.05, 8.05, 8.49, 8.49, 8.94, 8.94, 8.94, 9.39, 9.39, 9.39, 9.39, 9.83, 9.83, 9.83, 10.28, 10.73, 10.73, 10.73, 11.18, 11.18, 11.62, 11.62, 11.62, 11.62, 12.07, 12.07, 12.07, 12.07, 12.07, 12.07, 12.52, 12.52, 12.96, 12.96, 12.96, 13.41, 13.41, 13.86, 13.86, 13.86, 14.3, 14.3, 14.75, 15.2, 15.2, 15.2, 15.2, 14.75, 13.41, 12.52, 12.96, 12.96, 13.41, 13.41, 13.86, 14.3, 14.3, 14.3, 14.75, 14.75, 14.75, 2.24, 2.24, 2.24, 2.24, 2.24, 2.68, 2.68, 2.68, 2.68, 3.13, 3.13, 3.13, 3.13, 3.58, 3.58, 3.58, 4.02, 4.02, 4.02, 4.47, 4.47, 4.92, 4.92, 4.92, 5.36, 5.81, 5.81, 6.26, 6.26, 6.71, 6.71, 6.71, 7.15, 7.15, 7.6, 7.6, 7.6, 8.05, 8.05, 8.05, 8.49, 8.49, 8.49, 8.94, 8.94, 8.94, 9.39, 9.39, 9.39, 9.83, 9.83, 10.28, 10.28, 10.73, 10.73, 11.18, 11.18, 11.18, 11.62, 11.62, 11.62, 11.62, 11.62, 12.07, 12.07, 12.07, 12.07, 12.07, 12.52, 12.52, 12.96, 12.96, 13.41, 13.41, 13.41, 13.86, 13.86, 14.3, 14.3, 14.75, 14.75, 15.2, 15.2, 15.2, 15.2, 13.86, 12.52, 12.52, 12.96, 12.96, 13.41, 13.41, 13.86, 14.3, 14.3, 14.75, 14.75, 14.75, 2.24, 2.24, 2.24, 2.24, 2.24, 2.24, 2.68, 2.68, 2.68, 3.13, 3.13, 3.13, 3.13, 3.58, 3.58, 3.58, 4.02, 4.02, 4.02, 4.47, 4.47, 4.92, 4.92, 5.36, 5.36, 5.81, 5.81, 6.26, 6.26, 6.26, 6.71, 6.71, 7.15, 7.15, 7.15, 7.6, 7.6, 7.6, 8.05, 8.05, 8.05, 8.49, 8.49, 8.49, 8.49, 8.94, 8.94, 8.94, 9.39, 9.39, 9.83, 10.28, 10.28, 10.73, 10.73, 10.73, 11.18, 11.18, 11.18, 11.18, 11.62, 11.62, 11.62, 11.62, 11.62, 12.07, 12.07, 12.07, 12.52, 12.52, 12.96, 12.96, 12.96, 13.41, 13.41, 13.41, 13.86, 13.86, 14.3, 14.3, 14.75, 15.2, 15.2, 15.2, 15.2, 14.3, 12.96, 12.52, 12.52, 12.52, 12.96, 12.96, 13.41, 13.86, 14.3, 14.3, 14.3, 14.3, 2.24, 2.24, 2.24, 2.24, 2.24, 2.24, 2.68, 2.68, 2.68, 3.13, 3.13, 3.13, 3.13, 3.58, 3.58, 3.58, 4.02, 4.02, 4.02, 4.47, 4.47, 4.92, 4.92, 5.36, 5.36, 5.81, 5.81, 6.26, 6.26, 6.26, 6.71, 6.71, 7.15, 7.15, 7.15, 7.6, 7.6, 7.6, 8.05, 8.05, 8.05, 8.49, 8.49, 8.49, 8.49, 8.94, 8.94, 8.94, 9.39, 9.39, 9.83, 10.28, 10.28, 10.73, 10.73, 10.73, 11.18, 11.18, 11.18, 11.18, 11.62, 11.62, 11.62, 11.62, 11.62, 12.07, 12.07, 12.07, 12.52, 12.52, 12.96, 12.96, 12.96, 13.41, 13.41, 13.41, 13.86, 13.86, 14.3, 14.3, 14.75, 14.75, 15.2, 15.2, 15.2, 14.75, 13.41, 12.52, 12.52, 12.52, 12.52, 12.96, 12.96, 13.41, 13.86, 14.3, 14.3, 14.3]}]